Time,TemperatureF,DewpointF,PressureIn,WindDirection,WindDirectionDegrees,WindSpeedMPH,WindSpeedGustMPH,Humidity,HourlyPrecipIn,Conditions,Clouds,dailyrainin,SoftwareType,DateUTC
2013-05-26 00:04:00,50.7,43.1,29.85,NNE,17,0.0,0.0,75,0.00,,,0.00,VWS V14.01,2013-05-26 07:04:00,
2013-05-26 00:05:00,50.7,43.1,29.85,NNE,17,0.0,0.0,75,0.00,,,0.00,VWS V14.01,2013-05-26 07:05:00,
2013-05-26 00:09:00,50.5,43.3,29.85,NNE,17,0.0,0.0,76,0.00,,,0.00,VWS V14.01,2013-05-26 07:09:00,
2013-05-26 00:10:00,50.5,43.3,29.85,NNE,17,0.0,0.0,76,0.00,,,0.00,VWS V14.01,2013-05-26 07:10:00,
2013-05-26 00:14:00,50.5,43.3,29.85,NNE,17,0.0,0.0,76,0.00,,,0.00,VWS V14.01,2013-05-26 07:14:00,
2013-05-26 00:15:00,50.5,43.6,29.85,NNE,17,0.0,0.0,77,0.00,,,0.00,VWS V14.01,2013-05-26 07:15:00,
2013-05-26 00:17:00,50.5,43.6,29.85,NNE,17,0.0,0.0,77,0.00,,,0.00,VWS V14.01,2013-05-26 07:17:00,
2013-05-26 00:18:00,50.5,43.6,29.85,NNE,17,0.0,0.0,77,0.00,,,0.00,VWS V14.01,2013-05-26 07:18:00,
2013-05-26 00:19:00,50.5,43.6,29.85,NNE,17,0.0,0.0,77,0.00,,,0.00,VWS V14.01,2013-05-26 07:19:00,
2013-05-26 00:22:00,50.5,43.6,29.85,NNE,17,0.0,0.0,77,0.00,,,0.00,VWS V14.01,2013-05-26 07:22:00,
2013-05-26 00:25:00,50.5,43.6,29.85,NNE,17,0.0,0.0,77,0.00,,,0.00,VWS V14.01,2013-05-26 07:25:00,
2013-05-26 00:28:00,50.5,43.6,29.85,NNE,17,0.0,0.0,77,0.00,,,0.00,VWS V14.01,2013-05-26 07:28:00,
2013-05-26 00:29:00,50.5,43.6,29.85,NNE,17,0.0,0.0,77,0.00,,,0.00,VWS V14.01,2013-05-26 07:29:00,
2013-05-26 00:30:00,50.5,43.6,29.85,NNE,17,0.0,0.0,77,0.00,,,0.00,VWS V14.01,2013-05-26 07:30:00,
2013-05-26 00:34:00,50.5,43.6,29.85,NNE,17,0.0,0.0,77,0.00,,,0.00,VWS V14.01,2013-05-26 07:34:00,
2013-05-26 00:35:00,50.5,43.6,29.85,NNE,17,0.0,0.0,77,0.00,,,0.00,VWS V14.01,2013-05-26 07:35:00,
2013-05-26 00:37:00,50.5,43.6,29.85,NNE,17,0.0,0.0,77,0.00,,,0.00,VWS V14.01,2013-05-26 07:37:00,
2013-05-26 00:38:00,50.5,43.6,29.85,NNE,17,0.0,0.0,77,0.00,,,0.00,VWS V14.01,2013-05-26 07:38:00,
2013-05-26 00:39:00,50.5,43.6,29.85,NNE,17,0.0,0.0,77,0.00,,,0.00,VWS V14.01,2013-05-26 07:39:00,
2013-05-26 00:40:00,50.5,43.6,29.85,NNE,17,0.0,0.0,77,0.00,,,0.00,VWS V14.01,2013-05-26 07:40:00,
2013-05-26 00:41:00,50.5,43.6,29.85,NNE,17,0.0,0.0,77,0.00,,,0.00,VWS V14.01,2013-05-26 07:41:00,
2013-05-26 00:43:00,50.4,43.4,29.85,NNE,17,0.0,0.0,77,0.00,,,0.00,VWS V14.01,2013-05-26 07:43:00,
2013-05-26 00:44:00,50.4,43.1,29.85,NNE,17,0.0,0.0,76,0.00,,,0.00,VWS V14.01,2013-05-26 07:44:00,
2013-05-26 00:48:00,50.4,43.1,29.85,NNE,17,0.0,0.0,76,0.00,,,0.00,VWS V14.01,2013-05-26 07:48:00,
2013-05-26 00:49:00,50.4,43.1,29.85,NNE,17,0.0,0.0,76,0.00,,,0.00,VWS V14.01,2013-05-26 07:49:00,
2013-05-26 00:50:00,50.4,43.1,29.85,NNE,17,0.0,0.0,76,0.00,,,0.00,VWS V14.01,2013-05-26 07:50:00,
2013-05-26 00:54:00,50.4,43.1,29.85,NNE,17,0.0,0.0,76,0.00,,,0.00,VWS V14.01,2013-05-26 07:54:00,
2013-05-26 00:57:00,50.4,43.4,29.85,NNE,17,0.0,0.0,77,0.00,,,0.00,VWS V14.01,2013-05-26 07:57:00,
2013-05-26 00:58:00,50.5,43.6,29.85,NNE,17,0.0,0.0,77,0.00,,,0.00,VWS V14.01,2013-05-26 07:58:00,
2013-05-26 00:59:00,50.5,43.6,29.85,NNE,17,0.0,0.0,77,0.00,,,0.00,VWS V14.01,2013-05-26 07:59:00,
2013-05-26 01:02:00,50.4,43.4,29.85,NNE,17,0.0,0.0,77,0.00,,,0.00,VWS V14.01,2013-05-26 08:02:00,
2013-05-26 01:03:00,50.4,43.4,29.85,NNE,17,0.0,0.0,77,0.00,,,0.00,VWS V14.01,2013-05-26 08:03:00,
2013-05-26 01:04:00,50.4,43.4,29.85,NNE,17,0.0,0.0,77,0.00,,,0.00,VWS V14.01,2013-05-26 08:04:00,
2013-05-26 01:06:00,50.4,43.4,29.85,NNE,17,0.0,0.0,77,0.00,,,0.00,VWS V14.01,2013-05-26 08:06:00,
2013-05-26 01:10:00,50.4,43.8,29.85,NNE,17,0.0,0.0,78,0.00,,,0.00,VWS V14.01,2013-05-26 08:10:00,
2013-05-26 01:12:00,50.4,43.8,29.85,NNE,17,0.0,0.0,78,0.00,,,0.00,VWS V14.01,2013-05-26 08:12:00,
2013-05-26 01:13:00,50.4,43.8,29.85,NNE,17,0.0,0.0,78,0.00,,,0.00,VWS V14.01,2013-05-26 08:13:00,
2013-05-26 01:15:00,50.4,43.8,29.85,NNE,17,0.0,0.0,78,0.00,,,0.00,VWS V14.01,2013-05-26 08:15:00,
2013-05-26 01:17:00,50.5,44.0,29.85,NNE,17,0.0,0.0,78,0.00,,,0.00,VWS V14.01,2013-05-26 08:17:00,
2013-05-26 01:19:00,50.5,44.0,29.85,NNE,17,0.0,0.0,78,0.00,,,0.00,VWS V14.01,2013-05-26 08:19:00,
2013-05-26 01:20:00,50.5,44.0,29.85,NNE,17,0.0,0.0,78,0.00,,,0.00,VWS V14.01,2013-05-26 08:20:00,
2013-05-26 01:21:00,50.5,44.0,29.85,NNE,17,0.0,0.0,78,0.00,,,0.00,VWS V14.01,2013-05-26 08:21:00,
2013-05-26 01:23:00,50.5,44.0,29.85,NNE,17,0.0,0.0,78,0.00,,,0.00,VWS V14.01,2013-05-26 08:23:00,
2013-05-26 01:26:00,50.5,44.0,29.85,NNE,17,0.0,0.0,78,0.00,,,0.00,VWS V14.01,2013-05-26 08:26:00,
2013-05-26 01:27:00,50.5,43.6,29.85,NNE,17,0.0,0.0,77,0.00,,,0.00,VWS V14.01,2013-05-26 08:27:00,
2013-05-26 01:29:00,50.5,43.6,29.85,NNE,17,0.0,0.0,77,0.00,,,0.00,VWS V14.01,2013-05-26 08:29:00,
2013-05-26 01:33:00,50.5,43.6,29.85,NNE,17,0.0,0.0,77,0.00,,,0.00,VWS V14.01,2013-05-26 08:33:00,
2013-05-26 01:34:00,50.5,43.6,29.85,NNE,17,0.0,0.0,77,0.00,,,0.00,VWS V14.01,2013-05-26 08:34:00,
2013-05-26 01:35:00,50.5,43.6,29.85,NNE,17,0.0,0.0,77,0.00,,,0.00,VWS V14.01,2013-05-26 08:35:00,
2013-05-26 01:39:00,50.7,43.8,29.85,NNE,17,0.0,0.0,77,0.00,,,0.00,VWS V14.01,2013-05-26 08:39:00,
2013-05-26 01:40:00,50.7,43.8,29.85,NNE,17,0.0,0.0,77,0.00,,,0.00,VWS V14.01,2013-05-26 08:40:00,
2013-05-26 01:41:00,50.7,43.8,29.85,NNE,17,0.0,0.0,77,0.00,,,0.00,VWS V14.01,2013-05-26 08:41:00,
2013-05-26 01:45:00,50.7,43.8,29.85,NNE,17,0.0,0.0,77,0.00,,,0.00,VWS V14.01,2013-05-26 08:45:00,
2013-05-26 01:46:00,50.7,43.8,29.85,NNE,17,0.0,0.0,77,0.00,,,0.00,VWS V14.01,2013-05-26 08:46:00,
2013-05-26 01:47:00,50.7,43.8,29.85,NNE,17,0.0,0.0,77,0.00,,,0.00,VWS V14.01,2013-05-26 08:47:00,
2013-05-26 01:49:00,50.7,43.8,29.85,NNE,17,0.0,0.0,77,0.00,,,0.00,VWS V14.01,2013-05-26 08:49:00,
2013-05-26 01:52:00,50.7,43.8,29.85,NNE,17,0.0,0.0,77,0.00,,,0.00,VWS V14.01,2013-05-26 08:52:00,
2013-05-26 01:53:00,50.7,43.8,29.85,NNE,17,0.0,0.0,77,0.00,,,0.00,VWS V14.01,2013-05-26 08:53:00,
2013-05-26 01:54:00,50.5,43.6,29.85,NNE,17,0.0,0.0,77,0.00,,,0.00,VWS V14.01,2013-05-26 08:54:00,
2013-05-26 01:56:00,50.5,43.6,29.85,NNE,17,0.0,0.0,77,0.00,,,0.00,VWS V14.01,2013-05-26 08:56:00,
2013-05-26 01:57:00,50.5,43.6,29.85,NNE,17,0.0,0.0,77,0.00,,,0.00,VWS V14.01,2013-05-26 08:57:00,
2013-05-26 01:59:00,50.5,43.6,29.85,NNE,17,0.0,0.0,77,0.00,,,0.00,VWS V14.01,2013-05-26 08:59:00,
2013-05-26 02:03:00,50.7,43.8,29.85,NNE,17,0.0,0.0,77,0.00,,,0.00,VWS V14.01,2013-05-26 09:03:00,
2013-05-26 02:04:00,50.7,43.8,29.85,NNE,17,0.0,0.0,77,0.00,,,0.00,VWS V14.01,2013-05-26 09:04:00,
2013-05-26 02:05:00,50.7,43.8,29.85,NNE,17,0.0,0.0,77,0.00,,,0.00,VWS V14.01,2013-05-26 09:05:00,
2013-05-26 02:06:00,50.9,44.0,29.85,NNE,17,0.0,0.0,77,0.00,,,0.00,VWS V14.01,2013-05-26 09:06:00,
2013-05-26 02:09:00,50.7,43.8,29.85,NNE,17,0.0,0.0,77,0.00,,,0.00,VWS V14.01,2013-05-26 09:09:00,
2013-05-26 02:11:00,50.9,44.0,29.85,NNE,17,0.0,0.0,77,0.00,,,0.00,VWS V14.01,2013-05-26 09:11:00,
2013-05-26 02:13:00,50.7,44.1,29.85,NNE,17,0.0,0.0,78,0.00,,,0.00,VWS V14.01,2013-05-26 09:13:00,
2013-05-26 02:16:00,50.9,44.3,29.85,NNE,17,0.0,0.0,78,0.00,,,0.00,VWS V14.01,2013-05-26 09:16:00,
2013-05-26 02:17:00,50.7,44.1,29.85,NNE,17,0.0,0.0,78,0.00,,,0.00,VWS V14.01,2013-05-26 09:17:00,
2013-05-26 02:18:00,50.7,44.1,29.85,NNE,17,0.0,0.0,78,0.00,,,0.00,VWS V14.01,2013-05-26 09:18:00,
2013-05-26 02:19:00,50.7,44.1,29.85,NNE,17,0.0,0.0,78,0.00,,,0.00,VWS V14.01,2013-05-26 09:19:00,
2013-05-26 02:22:00,50.7,44.1,29.85,NNE,17,0.0,0.0,78,0.00,,,0.00,VWS V14.01,2013-05-26 09:22:00,
2013-05-26 02:24:00,50.7,44.1,29.85,NNE,17,0.0,0.0,78,0.00,,,0.00,VWS V14.01,2013-05-26 09:24:00,
2013-05-26 02:25:00,50.9,44.3,29.83,NNE,17,0.0,0.0,78,0.00,,,0.00,VWS V14.01,2013-05-26 09:25:00,
2013-05-26 02:30:00,50.7,43.8,29.83,NNE,17,0.0,0.0,77,0.00,,,0.00,VWS V14.01,2013-05-26 09:30:00,
2013-05-26 02:31:00,50.7,43.8,29.83,NNE,17,0.0,0.0,77,0.00,,,0.00,VWS V14.01,2013-05-26 09:31:00,
2013-05-26 02:33:00,50.9,44.0,29.83,NNE,17,0.0,0.0,77,0.00,,,0.00,VWS V14.01,2013-05-26 09:33:00,
2013-05-26 02:35:00,50.9,44.0,29.83,NNE,17,0.0,0.0,77,0.00,,,0.00,VWS V14.01,2013-05-26 09:35:00,
2013-05-26 02:37:00,50.9,44.0,29.83,NNE,17,0.0,0.0,77,0.00,,,0.00,VWS V14.01,2013-05-26 09:37:00,
2013-05-26 02:39:00,50.9,44.0,29.83,NNE,17,0.0,0.0,77,0.00,,,0.00,VWS V14.01,2013-05-26 09:39:00,
2013-05-26 02:40:00,50.9,44.0,29.83,NNE,17,0.0,0.0,77,0.00,,,0.00,VWS V14.01,2013-05-26 09:40:00,
2013-05-26 02:42:00,50.9,44.0,29.83,NNE,17,0.0,0.0,77,0.00,,,0.00,VWS V14.01,2013-05-26 09:42:00,
2013-05-26 02:45:00,50.9,44.0,29.83,NNE,17,0.0,0.0,77,0.00,,,0.00,VWS V14.01,2013-05-26 09:45:00,
2013-05-26 02:47:00,50.9,44.0,29.83,NNE,17,0.0,0.0,77,0.00,,,0.00,VWS V14.01,2013-05-26 09:47:00,
2013-05-26 02:48:00,50.9,44.0,29.83,NNE,17,0.0,0.0,77,0.00,,,0.00,VWS V14.01,2013-05-26 09:48:00,
2013-05-26 02:49:00,50.9,44.0,29.83,NNE,17,0.0,0.0,77,0.00,,,0.00,VWS V14.01,2013-05-26 09:49:00,
2013-05-26 02:52:00,50.7,43.8,29.83,NNE,17,0.0,0.0,77,0.00,,,0.00,VWS V14.01,2013-05-26 09:52:00,
2013-05-26 02:53:00,50.7,43.8,29.83,NNE,17,0.0,0.0,77,0.00,,,0.00,VWS V14.01,2013-05-26 09:53:00,
2013-05-26 02:55:00,50.9,44.0,29.83,NNE,17,0.0,0.0,77,0.00,,,0.00,VWS V14.01,2013-05-26 09:55:00,
2013-05-26 02:56:00,50.9,44.0,29.83,NNE,17,0.0,0.0,77,0.00,,,0.00,VWS V14.01,2013-05-26 09:56:00,
2013-05-26 02:59:00,50.9,44.0,29.83,NNE,17,0.0,0.0,77,0.00,,,0.00,VWS V14.01,2013-05-26 09:59:00,
2013-05-26 03:01:00,50.9,44.0,29.83,NNE,17,0.0,0.0,77,0.00,,,0.00,VWS V14.01,2013-05-26 10:01:00,
2013-05-26 03:02:00,50.9,44.0,29.83,NNE,17,0.0,0.0,77,0.00,,,0.00,VWS V14.01,2013-05-26 10:02:00,
2013-05-26 03:03:00,50.9,44.0,29.83,NNE,17,0.0,0.0,77,0.00,,,0.00,VWS V14.01,2013-05-26 10:03:00,
2013-05-26 03:07:00,50.7,43.8,29.83,NNE,17,0.0,0.0,77,0.00,,,0.00,VWS V14.01,2013-05-26 10:07:00,
2013-05-26 03:08:00,50.7,43.8,29.83,NNE,17,0.0,0.0,77,0.00,,,0.00,VWS V14.01,2013-05-26 10:08:00,
2013-05-26 03:10:00,50.9,44.0,29.83,NNE,17,0.0,0.0,77,0.00,,,0.00,VWS V14.01,2013-05-26 10:10:00,
2013-05-26 03:11:00,50.9,44.0,29.83,NNE,17,0.0,0.0,77,0.00,,,0.00,VWS V14.01,2013-05-26 10:11:00,
2013-05-26 03:14:00,50.9,44.0,29.83,NNE,17,0.0,0.0,77,0.00,,,0.00,VWS V14.01,2013-05-26 10:14:00,
2013-05-26 03:16:00,51.1,44.1,29.83,NNE,17,0.0,0.0,77,0.00,,,0.00,VWS V14.01,2013-05-26 10:16:00,
2013-05-26 03:18:00,50.9,44.0,29.83,NNE,17,0.0,0.0,77,0.00,,,0.00,VWS V14.01,2013-05-26 10:18:00,
2013-05-26 03:22:00,51.1,44.1,29.83,NNE,17,0.0,0.0,77,0.00,,,0.00,VWS V14.01,2013-05-26 10:22:00,
2013-05-26 03:23:00,51.1,44.1,29.83,NNE,17,0.0,0.0,77,0.00,,,0.00,VWS V14.01,2013-05-26 10:23:00,
2013-05-26 03:26:00,50.9,44.0,29.83,NNE,17,0.0,0.0,77,0.00,,,0.00,VWS V14.01,2013-05-26 10:26:00,
2013-05-26 03:28:00,50.9,44.0,29.83,NNE,17,0.0,0.0,77,0.00,,,0.00,VWS V14.01,2013-05-26 10:28:00,
2013-05-26 03:29:00,50.9,44.0,29.83,NNE,17,0.0,0.0,77,0.00,,,0.00,VWS V14.01,2013-05-26 10:29:00,
2013-05-26 03:32:00,50.9,44.0,29.83,NNE,17,0.0,0.0,77,0.00,,,0.00,VWS V14.01,2013-05-26 10:32:00,
2013-05-26 03:33:00,50.9,44.0,29.83,NNE,17,0.0,0.0,77,0.00,,,0.00,VWS V14.01,2013-05-26 10:33:00,
2013-05-26 03:35:00,50.9,44.0,29.83,NNE,17,0.0,0.0,77,0.00,,,0.00,VWS V14.01,2013-05-26 10:35:00,
2013-05-26 03:36:00,50.9,44.0,29.83,NNE,17,0.0,0.0,77,0.00,,,0.00,VWS V14.01,2013-05-26 10:36:00,
2013-05-26 03:37:00,50.9,44.0,29.83,NNE,17,0.0,0.0,77,0.00,,,0.00,VWS V14.01,2013-05-26 10:37:00,
2013-05-26 03:38:00,50.9,44.0,29.83,NNE,17,0.0,0.0,77,0.00,,,0.00,VWS V14.01,2013-05-26 10:38:00,
2013-05-26 03:39:00,50.9,44.0,29.83,NNE,17,0.0,0.0,77,0.00,,,0.00,VWS V14.01,2013-05-26 10:39:00,
2013-05-26 03:43:00,50.9,44.0,29.83,NNE,17,0.0,0.0,77,0.00,,,0.00,VWS V14.01,2013-05-26 10:43:00,
2013-05-26 03:44:00,50.9,44.0,29.83,NNE,17,0.0,0.0,77,0.00,,,0.00,VWS V14.01,2013-05-26 10:44:00,
2013-05-26 03:45:00,50.9,44.0,29.83,NNE,17,0.0,0.0,77,0.00,,,0.00,VWS V14.01,2013-05-26 10:45:00,
2013-05-26 03:47:00,50.9,44.0,29.83,NNE,17,0.0,0.0,77,0.00,,,0.00,VWS V14.01,2013-05-26 10:47:00,
2013-05-26 03:50:00,50.9,44.0,29.83,NNE,17,0.0,0.0,77,0.00,,,0.00,VWS V14.01,2013-05-26 10:50:00,
2013-05-26 03:51:00,50.9,44.0,29.83,NNE,17,0.0,0.0,77,0.00,,,0.00,VWS V14.01,2013-05-26 10:51:00,
2013-05-26 03:52:00,50.9,44.0,29.83,NNE,17,0.0,0.0,77,0.00,,,0.00,VWS V14.01,2013-05-26 10:52:00,
2013-05-26 03:57:00,50.9,44.0,29.83,NNE,17,0.0,0.0,77,0.04,,,0.04,VWS V14.01,2013-05-26 10:57:00,
2013-05-26 03:58:00,50.9,44.0,29.83,NNE,17,0.0,0.0,77,0.04,,,0.04,VWS V14.01,2013-05-26 10:58:00,
2013-05-26 03:59:00,50.9,44.0,29.83,NNE,17,0.0,0.0,77,0.04,,,0.04,VWS V14.01,2013-05-26 10:59:00,
2013-05-26 04:01:00,50.9,44.0,29.83,NNE,17,0.0,0.0,77,0.04,,,0.04,VWS V14.01,2013-05-26 11:01:00,
2013-05-26 04:06:00,50.9,44.0,29.83,NNE,17,0.0,0.0,77,0.04,,,0.04,VWS V14.01,2013-05-26 11:06:00,
2013-05-26 04:07:00,50.9,44.0,29.83,NNE,17,0.0,0.0,77,0.04,,,0.04,VWS V14.01,2013-05-26 11:07:00,
2013-05-26 04:08:00,50.9,44.0,29.83,NNE,17,0.0,0.0,77,0.04,,,0.04,VWS V14.01,2013-05-26 11:08:00,
2013-05-26 04:09:00,50.9,44.0,29.83,NNE,17,0.0,0.0,77,0.04,,,0.04,VWS V14.01,2013-05-26 11:09:00,
2013-05-26 04:10:00,50.9,44.0,29.83,NNE,17,0.0,0.0,77,0.04,,,0.04,VWS V14.01,2013-05-26 11:10:00,
2013-05-26 04:13:00,50.9,44.0,29.83,NNE,17,0.0,0.0,77,0.04,,,0.04,VWS V14.01,2013-05-26 11:13:00,
2013-05-26 04:14:00,50.9,44.0,29.83,NNE,17,0.0,0.0,77,0.04,,,0.04,VWS V14.01,2013-05-26 11:14:00,
2013-05-26 04:15:00,50.9,44.0,29.83,NNE,17,0.0,0.0,77,0.04,,,0.04,VWS V14.01,2013-05-26 11:15:00,
2013-05-26 04:20:00,50.9,44.0,29.83,NNE,17,0.0,0.0,77,0.04,,,0.04,VWS V14.01,2013-05-26 11:20:00,
2013-05-26 04:22:00,50.9,44.0,29.83,NNE,17,0.0,0.0,77,0.04,,,0.04,VWS V14.01,2013-05-26 11:22:00,
2013-05-26 04:23:00,50.9,44.0,29.83,NNE,17,0.0,0.0,77,0.04,,,0.04,VWS V14.01,2013-05-26 11:23:00,
2013-05-26 04:25:00,50.9,44.0,29.83,NNE,17,0.0,0.0,77,0.04,,,0.04,VWS V14.01,2013-05-26 11:25:00,
2013-05-26 04:28:00,50.9,44.0,29.83,NNE,17,0.0,0.0,77,0.04,,,0.04,VWS V14.01,2013-05-26 11:28:00,
2013-05-26 04:30:00,50.9,44.0,29.83,NNE,17,0.0,0.0,77,0.04,,,0.04,VWS V14.01,2013-05-26 11:30:00,
2013-05-26 04:33:00,50.9,44.0,29.83,NNE,17,0.0,0.0,77,0.04,,,0.04,VWS V14.01,2013-05-26 11:33:00,
2013-05-26 04:34:00,50.9,44.0,29.83,NNE,17,0.0,0.0,77,0.04,,,0.04,VWS V14.01,2013-05-26 11:34:00,
2013-05-26 04:36:00,50.9,44.0,29.83,NNE,17,0.0,0.0,77,0.04,,,0.04,VWS V14.01,2013-05-26 11:36:00,
2013-05-26 04:38:00,50.9,44.0,29.83,NNE,17,0.0,0.0,77,0.04,,,0.04,VWS V14.01,2013-05-26 11:38:00,
2013-05-26 04:39:00,50.9,44.0,29.83,NNE,17,0.0,0.0,77,0.04,,,0.04,VWS V14.01,2013-05-26 11:39:00,
2013-05-26 04:41:00,50.9,44.0,29.83,NNE,17,0.0,0.0,77,0.04,,,0.04,VWS V14.01,2013-05-26 11:41:00,
2013-05-26 04:43:00,50.9,44.0,29.83,NNE,17,0.0,0.0,77,0.04,,,0.04,VWS V14.01,2013-05-26 11:43:00,
2013-05-26 04:44:00,50.9,44.0,29.83,NNE,17,0.0,0.0,77,0.04,,,0.04,VWS V14.01,2013-05-26 11:44:00,
2013-05-26 04:45:00,50.9,44.0,29.83,NNE,17,0.0,0.0,77,0.04,,,0.04,VWS V14.01,2013-05-26 11:45:00,
2013-05-26 04:46:00,50.9,44.0,29.83,NNE,17,0.0,0.0,77,0.04,,,0.04,VWS V14.01,2013-05-26 11:46:00,
2013-05-26 04:49:00,50.9,44.0,29.83,NNE,17,0.0,0.0,77,0.04,,,0.04,VWS V14.01,2013-05-26 11:49:00,
2013-05-26 04:51:00,50.9,44.0,29.83,NNE,17,0.0,0.0,77,0.04,,,0.04,VWS V14.01,2013-05-26 11:51:00,
2013-05-26 04:53:00,50.9,44.0,29.83,NNE,17,0.0,0.0,77,0.04,,,0.04,VWS V14.01,2013-05-26 11:53:00,
2013-05-26 04:57:00,50.9,44.0,29.83,NNE,17,0.0,0.0,77,0.00,,,0.04,VWS V14.01,2013-05-26 11:57:00,
2013-05-26 04:58:00,50.9,44.0,29.83,NNE,17,0.0,0.0,77,0.00,,,0.04,VWS V14.01,2013-05-26 11:58:00,
2013-05-26 05:00:00,50.9,44.0,29.83,NNE,17,0.0,0.0,77,0.00,,,0.04,VWS V14.01,2013-05-26 12:00:00,
2013-05-26 05:01:00,50.9,44.0,29.83,NNE,17,0.0,0.0,77,0.00,,,0.04,VWS V14.01,2013-05-26 12:01:00,
2013-05-26 05:04:00,50.9,44.0,29.83,NNE,17,0.0,0.0,77,0.00,,,0.04,VWS V14.01,2013-05-26 12:04:00,
2013-05-26 05:06:00,50.7,43.8,29.83,NNE,17,0.0,0.0,77,0.00,,,0.04,VWS V14.01,2013-05-26 12:06:00,
2013-05-26 05:07:00,50.7,43.8,29.83,NNE,17,0.0,0.0,77,0.00,,,0.04,VWS V14.01,2013-05-26 12:07:00,
2013-05-26 05:10:00,50.7,43.8,29.83,NNE,17,0.0,0.0,77,0.00,,,0.04,VWS V14.01,2013-05-26 12:10:00,
2013-05-26 05:11:00,50.7,43.8,29.83,NNE,17,0.0,0.0,77,0.00,,,0.04,VWS V14.01,2013-05-26 12:11:00,
2013-05-26 05:12:00,50.7,43.8,29.83,NNE,17,0.0,0.0,77,0.00,,,0.04,VWS V14.01,2013-05-26 12:12:00,
2013-05-26 05:15:00,50.9,44.0,29.83,NNE,17,0.0,0.0,77,0.04,,,0.08,VWS V14.01,2013-05-26 12:15:00,
2013-05-26 05:16:00,50.9,44.0,29.83,NNE,17,0.0,0.0,77,0.04,,,0.08,VWS V14.01,2013-05-26 12:16:00,
2013-05-26 05:17:00,50.9,44.0,29.83,NNE,17,0.0,0.0,77,0.04,,,0.08,VWS V14.01,2013-05-26 12:17:00,
2013-05-26 05:18:00,50.9,44.0,29.83,NNE,17,0.0,0.0,77,0.04,,,0.08,VWS V14.01,2013-05-26 12:18:00,
2013-05-26 05:23:00,50.7,43.8,29.83,NNE,17,0.0,0.0,77,0.04,,,0.08,VWS V14.01,2013-05-26 12:23:00,
2013-05-26 05:24:00,50.9,44.0,29.83,NNE,17,0.0,0.0,77,0.04,,,0.08,VWS V14.01,2013-05-26 12:24:00,
2013-05-26 05:25:00,50.9,44.0,29.83,NNE,17,0.0,0.0,77,0.04,,,0.08,VWS V14.01,2013-05-26 12:25:00,
2013-05-26 05:26:00,50.9,44.0,29.83,NNE,17,0.0,0.0,77,0.04,,,0.08,VWS V14.01,2013-05-26 12:26:00,
2013-05-26 05:28:00,50.9,44.0,29.83,NNE,17,0.0,0.0,77,0.04,,,0.08,VWS V14.01,2013-05-26 12:28:00,
2013-05-26 05:30:00,50.9,44.0,29.83,NNE,17,0.0,0.0,77,0.04,,,0.08,VWS V14.01,2013-05-26 12:30:00,
2013-05-26 05:31:00,50.9,44.0,29.83,NNE,17,0.0,0.0,77,0.04,,,0.08,VWS V14.01,2013-05-26 12:31:00,
2013-05-26 05:32:00,50.9,44.0,29.83,NNE,17,0.0,0.0,77,0.04,,,0.08,VWS V14.01,2013-05-26 12:32:00,
2013-05-26 05:33:00,50.9,44.0,29.83,NNE,17,0.0,0.0,77,0.04,,,0.08,VWS V14.01,2013-05-26 12:33:00,
2013-05-26 05:36:00,50.9,44.0,29.83,NNE,17,0.0,0.0,77,0.04,,,0.08,VWS V14.01,2013-05-26 12:36:00,
2013-05-26 05:37:00,50.9,44.0,29.83,NNE,17,0.0,0.0,77,0.04,,,0.08,VWS V14.01,2013-05-26 12:37:00,
2013-05-26 05:38:00,50.9,44.0,29.83,NNE,17,0.0,0.0,77,0.04,,,0.08,VWS V14.01,2013-05-26 12:38:00,
2013-05-26 05:39:00,50.9,44.0,29.83,NNE,17,0.0,0.0,77,0.04,,,0.08,VWS V14.01,2013-05-26 12:39:00,
2013-05-26 05:43:00,50.9,44.0,29.83,NNE,17,0.0,0.0,77,0.04,,,0.08,VWS V14.01,2013-05-26 12:43:00,
2013-05-26 05:44:00,50.9,44.0,29.83,NNE,17,0.0,0.0,77,0.04,,,0.08,VWS V14.01,2013-05-26 12:44:00,
2013-05-26 05:45:00,50.9,44.0,29.83,NNE,17,0.0,0.0,77,0.04,,,0.08,VWS V14.01,2013-05-26 12:45:00,
2013-05-26 05:47:00,50.9,44.0,29.83,NNE,17,0.0,0.0,77,0.04,,,0.08,VWS V14.01,2013-05-26 12:47:00,
2013-05-26 05:48:00,50.9,44.0,29.83,NNE,17,0.0,0.0,77,0.04,,,0.08,VWS V14.01,2013-05-26 12:48:00,
2013-05-26 05:52:00,50.9,44.0,29.83,NNE,17,0.0,0.0,77,0.08,,,0.12,VWS V14.01,2013-05-26 12:52:00,
2013-05-26 05:53:00,50.9,44.0,29.83,NNE,17,0.0,0.0,77,0.08,,,0.12,VWS V14.01,2013-05-26 12:53:00,
2013-05-26 05:54:00,50.9,44.0,29.83,NNE,17,0.0,0.0,77,0.08,,,0.12,VWS V14.01,2013-05-26 12:54:00,
2013-05-26 05:55:00,50.9,44.0,29.83,NNE,17,0.0,0.0,77,0.08,,,0.12,VWS V14.01,2013-05-26 12:55:00,
2013-05-26 05:57:00,50.9,44.0,29.83,NNE,17,0.0,0.0,77,0.08,,,0.12,VWS V14.01,2013-05-26 12:57:00,
2013-05-26 05:58:00,50.9,44.0,29.83,NNE,17,0.0,0.0,77,0.08,,,0.12,VWS V14.01,2013-05-26 12:58:00,
2013-05-26 06:03:00,50.9,44.0,29.83,NNE,17,0.0,0.0,77,0.08,,,0.12,VWS V14.01,2013-05-26 13:03:00,
2013-05-26 06:05:00,50.9,44.0,29.83,NNE,17,0.0,0.0,77,0.08,,,0.12,VWS V14.01,2013-05-26 13:05:00,
2013-05-26 06:06:00,50.9,44.0,29.83,NNE,17,0.0,0.0,77,0.08,,,0.12,VWS V14.01,2013-05-26 13:06:00,
2013-05-26 06:08:00,50.9,44.0,29.83,NNE,17,0.0,0.0,77,0.08,,,0.12,VWS V14.01,2013-05-26 13:08:00,
2013-05-26 06:11:00,50.9,44.0,29.83,NNE,17,0.0,0.0,77,0.08,,,0.12,VWS V14.01,2013-05-26 13:11:00,
2013-05-26 06:14:00,50.9,44.0,29.83,NNE,17,0.0,0.0,77,0.08,,,0.12,VWS V14.01,2013-05-26 13:14:00,
2013-05-26 06:16:00,50.9,44.0,29.83,NNE,17,0.0,0.0,77,0.04,,,0.12,VWS V14.01,2013-05-26 13:16:00,
2013-05-26 06:17:00,50.9,44.0,29.83,NNE,17,0.0,0.0,77,0.04,,,0.12,VWS V14.01,2013-05-26 13:17:00,
2013-05-26 06:18:00,50.9,44.0,29.83,NNE,17,0.0,0.0,77,0.04,,,0.12,VWS V14.01,2013-05-26 13:18:00,
2013-05-26 06:21:00,50.9,44.0,29.83,NNE,17,0.0,0.0,77,0.08,,,0.16,VWS V14.01,2013-05-26 13:21:00,
2013-05-26 06:22:00,51.1,44.1,29.83,NNE,17,0.0,0.0,77,0.08,,,0.16,VWS V14.01,2013-05-26 13:22:00,
2013-05-26 06:23:00,51.1,44.1,29.83,NNE,17,0.0,0.0,77,0.08,,,0.16,VWS V14.01,2013-05-26 13:23:00,
2013-05-26 06:24:00,51.1,44.1,29.83,NNE,17,0.0,0.0,77,0.08,,,0.16,VWS V14.01,2013-05-26 13:24:00,
2013-05-26 06:28:00,51.1,44.1,29.83,NNE,17,0.0,0.0,77,0.08,,,0.16,VWS V14.01,2013-05-26 13:28:00,
2013-05-26 06:30:00,51.1,44.1,29.83,NNE,17,0.0,0.0,77,0.08,,,0.16,VWS V14.01,2013-05-26 13:30:00,
2013-05-26 06:32:00,51.1,44.1,29.83,NNE,17,0.0,0.0,77,0.08,,,0.16,VWS V14.01,2013-05-26 13:32:00,
2013-05-26 06:33:00,51.1,44.1,29.83,NNE,17,0.0,0.0,77,0.08,,,0.16,VWS V14.01,2013-05-26 13:33:00,
2013-05-26 06:36:00,51.1,44.1,29.83,NNE,17,0.0,0.0,77,0.08,,,0.16,VWS V14.01,2013-05-26 13:36:00,
2013-05-26 06:38:00,51.1,44.1,29.83,NNE,17,0.0,0.0,77,0.08,,,0.16,VWS V14.01,2013-05-26 13:38:00,
2013-05-26 06:39:00,51.1,44.1,29.83,NNE,17,0.0,0.0,77,0.08,,,0.16,VWS V14.01,2013-05-26 13:39:00,
2013-05-26 06:40:00,51.1,44.1,29.83,NNE,17,0.0,0.0,77,0.08,,,0.16,VWS V14.01,2013-05-26 13:40:00,
2013-05-26 06:42:00,51.1,44.1,29.83,NNE,17,0.0,0.0,77,0.08,,,0.16,VWS V14.01,2013-05-26 13:42:00,
2013-05-26 06:43:00,51.1,44.1,29.83,NNE,17,0.0,0.0,77,0.08,,,0.16,VWS V14.01,2013-05-26 13:43:00,
2013-05-26 06:45:00,51.1,44.1,29.83,NNE,17,0.0,0.0,77,0.08,,,0.16,VWS V14.01,2013-05-26 13:45:00,
2013-05-26 06:47:00,51.1,44.1,29.83,NNE,17,0.0,0.0,77,0.12,,,0.20,VWS V14.01,2013-05-26 13:47:00,
2013-05-26 06:49:00,51.1,44.1,29.83,NNE,17,0.0,0.0,77,0.12,,,0.20,VWS V14.01,2013-05-26 13:49:00,
2013-05-26 06:50:00,51.3,44.3,29.83,NNE,17,0.0,0.0,77,0.12,,,0.20,VWS V14.01,2013-05-26 13:50:00,
2013-05-26 06:52:00,51.3,44.3,29.83,NNE,17,0.0,0.0,77,0.08,,,0.20,VWS V14.01,2013-05-26 13:52:00,
2013-05-26 06:55:00,51.3,44.3,29.83,NNE,17,0.0,0.0,77,0.08,,,0.20,VWS V14.01,2013-05-26 13:55:00,
2013-05-26 06:57:00,51.3,44.3,29.83,NNE,17,0.0,0.0,77,0.08,,,0.20,VWS V14.01,2013-05-26 13:57:00,
2013-05-26 06:58:00,51.3,44.3,29.83,NNE,17,0.0,0.0,77,0.08,,,0.20,VWS V14.01,2013-05-26 13:58:00,
2013-05-26 07:00:00,51.3,44.3,29.83,NNE,17,0.0,0.0,77,0.08,,,0.20,VWS V14.01,2013-05-26 14:00:00,
2013-05-26 07:01:00,51.3,44.3,29.83,NNE,17,0.0,0.0,77,0.08,,,0.20,VWS V14.01,2013-05-26 14:01:00,
2013-05-26 07:04:00,51.4,44.5,29.83,NNE,17,0.0,0.0,77,0.08,,,0.20,VWS V14.01,2013-05-26 14:04:00,
2013-05-26 07:05:00,51.4,44.5,29.83,NNE,17,0.0,0.0,77,0.08,,,0.20,VWS V14.01,2013-05-26 14:05:00,
2013-05-26 07:06:00,51.4,44.5,29.83,NNE,17,0.0,0.0,77,0.08,,,0.20,VWS V14.01,2013-05-26 14:06:00,
2013-05-26 07:07:00,51.4,44.5,29.83,NNE,17,0.0,0.0,77,0.08,,,0.20,VWS V14.01,2013-05-26 14:07:00,
2013-05-26 07:10:00,51.4,44.5,29.85,NNE,17,0.0,0.0,77,0.08,,,0.20,VWS V14.01,2013-05-26 14:10:00,
2013-05-26 07:11:00,51.4,44.5,29.85,NNE,17,0.0,0.0,77,0.08,,,0.20,VWS V14.01,2013-05-26 14:11:00,
2013-05-26 07:12:00,51.4,44.5,29.85,NNE,17,0.0,0.0,77,0.08,,,0.20,VWS V14.01,2013-05-26 14:12:00,
2013-05-26 07:17:00,51.6,44.7,29.85,NNE,17,0.0,0.0,77,0.08,,,0.20,VWS V14.01,2013-05-26 14:17:00,
2013-05-26 07:18:00,51.4,44.5,29.85,NNE,17,0.0,0.0,77,0.08,,,0.20,VWS V14.01,2013-05-26 14:18:00,
2013-05-26 07:19:00,51.4,44.5,29.85,NNE,17,0.0,0.0,77,0.08,,,0.20,VWS V14.01,2013-05-26 14:19:00,
2013-05-26 07:24:00,51.4,44.5,29.85,NNE,17,0.0,0.0,77,0.04,,,0.20,VWS V14.01,2013-05-26 14:24:00,
2013-05-26 07:25:00,51.4,44.5,29.85,NNE,17,0.0,0.0,77,0.04,,,0.20,VWS V14.01,2013-05-26 14:25:00,
2013-05-26 07:26:00,51.6,44.7,29.85,NNE,17,0.0,0.0,77,0.04,,,0.20,VWS V14.01,2013-05-26 14:26:00,
2013-05-26 07:31:00,51.6,44.7,29.85,NNE,17,0.0,0.0,77,0.08,,,0.24,VWS V14.01,2013-05-26 14:31:00,
2013-05-26 07:32:00,51.6,44.7,29.85,NNE,17,0.0,0.0,77,0.08,,,0.24,VWS V14.01,2013-05-26 14:32:00,
2013-05-26 07:33:00,51.6,44.7,29.85,NNE,17,0.0,0.0,77,0.08,,,0.24,VWS V14.01,2013-05-26 14:33:00,
2013-05-26 07:36:00,51.6,44.7,29.85,NNE,17,0.0,0.0,77,0.08,,,0.24,VWS V14.01,2013-05-26 14:36:00,
2013-05-26 07:37:00,51.6,44.7,29.85,NNE,17,0.0,0.0,77,0.08,,,0.24,VWS V14.01,2013-05-26 14:37:00,
2013-05-26 07:38:00,51.8,44.8,29.85,NNE,17,0.0,0.0,77,0.08,,,0.24,VWS V14.01,2013-05-26 14:38:00,
2013-05-26 07:42:00,51.6,44.7,29.83,NNE,17,0.0,0.0,77,0.08,,,0.24,VWS V14.01,2013-05-26 14:42:00,
2013-05-26 07:44:00,51.4,44.5,29.83,NNE,17,0.0,0.0,77,0.08,,,0.24,VWS V14.01,2013-05-26 14:44:00,
2013-05-26 07:47:00,51.6,44.7,29.83,NNE,17,0.0,0.0,77,0.08,,,0.24,VWS V14.01,2013-05-26 14:47:00,
2013-05-26 07:48:00,51.6,44.7,29.83,NNE,17,0.0,0.0,77,0.04,,,0.24,VWS V14.01,2013-05-26 14:48:00,
2013-05-26 07:49:00,51.6,44.7,29.83,NNE,17,0.0,0.0,77,0.04,,,0.24,VWS V14.01,2013-05-26 14:49:00,
2013-05-26 07:50:00,51.6,44.7,29.83,NNE,17,0.0,0.0,77,0.04,,,0.24,VWS V14.01,2013-05-26 14:50:00,
2013-05-26 07:51:00,51.6,44.7,29.83,NNE,17,0.0,0.0,77,0.04,,,0.24,VWS V14.01,2013-05-26 14:51:00,
2013-05-26 07:54:00,51.6,44.7,29.83,NNE,17,0.0,0.0,77,0.04,,,0.24,VWS V14.01,2013-05-26 14:54:00,
2013-05-26 07:55:00,51.6,44.7,29.85,NNE,17,0.0,0.0,77,0.04,,,0.24,VWS V14.01,2013-05-26 14:55:00,
2013-05-26 07:56:00,51.6,44.7,29.85,NNE,17,0.0,0.0,77,0.04,,,0.24,VWS V14.01,2013-05-26 14:56:00,
2013-05-26 07:59:00,51.8,44.8,29.85,NNE,17,0.0,0.0,77,0.04,,,0.24,VWS V14.01,2013-05-26 14:59:00,
2013-05-26 08:00:00,51.6,44.7,29.85,NNE,17,0.0,0.0,77,0.04,,,0.24,VWS V14.01,2013-05-26 15:00:00,
2013-05-26 08:02:00,51.6,44.7,29.85,NNE,17,0.0,0.0,77,0.08,,,0.28,VWS V14.01,2013-05-26 15:02:00,
2013-05-26 08:04:00,51.6,44.7,29.85,NNE,17,0.0,0.0,77,0.08,,,0.28,VWS V14.01,2013-05-26 15:04:00,
2013-05-26 08:07:00,51.6,44.7,29.85,NNE,17,0.0,0.0,77,0.08,,,0.28,VWS V14.01,2013-05-26 15:07:00,
2013-05-26 08:10:00,51.6,44.7,29.85,NNE,17,0.0,0.0,77,0.08,,,0.28,VWS V14.01,2013-05-26 15:10:00,
2013-05-26 08:11:00,51.6,44.7,29.85,NNE,17,0.0,0.0,77,0.08,,,0.28,VWS V14.01,2013-05-26 15:11:00,
2013-05-26 08:13:00,51.6,44.7,29.85,NNE,17,0.0,0.0,77,0.08,,,0.28,VWS V14.01,2013-05-26 15:13:00,
2013-05-26 08:14:00,51.6,44.7,29.85,NNE,17,0.0,0.0,77,0.08,,,0.28,VWS V14.01,2013-05-26 15:14:00,
2013-05-26 08:16:00,51.6,44.7,29.85,NNE,17,0.0,0.0,77,0.08,,,0.28,VWS V14.01,2013-05-26 15:16:00,
2013-05-26 08:20:00,51.6,44.7,29.85,NNE,17,0.0,0.0,77,0.08,,,0.28,VWS V14.01,2013-05-26 15:20:00,
2013-05-26 08:21:00,51.8,44.8,29.85,NNE,17,0.0,0.0,77,0.08,,,0.28,VWS V14.01,2013-05-26 15:21:00,
2013-05-26 08:24:00,51.8,44.8,29.85,NNE,17,0.0,0.0,77,0.08,,,0.28,VWS V14.01,2013-05-26 15:24:00,
2013-05-26 08:25:00,51.8,44.8,29.85,NNE,17,0.0,0.0,77,0.08,,,0.28,VWS V14.01,2013-05-26 15:25:00,
2013-05-26 08:28:00,52.0,45.0,29.85,NNE,17,0.0,0.0,77,0.08,,,0.28,VWS V14.01,2013-05-26 15:28:00,
2013-05-26 08:29:00,52.0,45.0,29.85,NNE,17,0.0,0.0,77,0.08,,,0.28,VWS V14.01,2013-05-26 15:29:00,
2013-05-26 08:31:00,51.8,44.8,29.85,NNE,17,0.0,0.0,77,0.04,,,0.28,VWS V14.01,2013-05-26 15:31:00,
2013-05-26 08:35:00,51.8,44.8,29.85,NNE,17,0.0,0.0,77,0.04,,,0.28,VWS V14.01,2013-05-26 15:35:00,
2013-05-26 08:36:00,51.8,44.8,29.85,NNE,17,0.0,0.0,77,0.04,,,0.28,VWS V14.01,2013-05-26 15:36:00,
2013-05-26 08:39:00,52.0,45.0,29.85,NNE,17,0.0,0.0,77,0.04,,,0.28,VWS V14.01,2013-05-26 15:39:00,
2013-05-26 08:41:00,52.2,45.2,29.85,NNE,17,0.0,0.0,77,0.04,,,0.28,VWS V14.01,2013-05-26 15:41:00,
2013-05-26 08:42:00,52.0,45.0,29.85,NNE,17,0.0,0.0,77,0.04,,,0.28,VWS V14.01,2013-05-26 15:42:00,
2013-05-26 08:44:00,52.2,45.2,29.85,NNE,17,0.0,0.0,77,0.08,,,0.31,VWS V14.01,2013-05-26 15:44:00,
2013-05-26 08:45:00,52.0,45.0,29.85,NNE,17,0.0,0.0,77,0.08,,,0.31,VWS V14.01,2013-05-26 15:45:00,
2013-05-26 08:48:00,52.0,45.0,29.85,NNE,17,0.0,0.0,77,0.08,,,0.31,VWS V14.01,2013-05-26 15:48:00,
2013-05-26 08:51:00,52.0,45.0,29.85,NNE,17,0.0,0.0,77,0.08,,,0.31,VWS V14.01,2013-05-26 15:51:00,
2013-05-26 08:52:00,52.0,45.0,29.85,NNE,17,0.0,0.0,77,0.08,,,0.31,VWS V14.01,2013-05-26 15:52:00,
2013-05-26 08:53:00,52.3,45.3,29.85,NNE,17,0.0,0.0,77,0.08,,,0.31,VWS V14.01,2013-05-26 15:53:00,
2013-05-26 08:54:00,52.2,45.2,29.85,NNE,17,0.0,0.0,77,0.08,,,0.31,VWS V14.01,2013-05-26 15:54:00,
2013-05-26 08:55:00,52.3,45.3,29.85,NNE,17,0.0,0.0,77,0.08,,,0.31,VWS V14.01,2013-05-26 15:55:00,
2013-05-26 08:59:00,52.3,45.3,29.85,NNE,17,0.0,0.0,77,0.08,,,0.31,VWS V14.01,2013-05-26 15:59:00,
2013-05-26 09:00:00,52.5,45.5,29.85,NNE,17,0.0,0.0,77,0.08,,,0.31,VWS V14.01,2013-05-26 16:00:00,
2013-05-26 09:03:00,52.3,45.3,29.85,NNE,17,0.0,0.0,77,0.04,,,0.31,VWS V14.01,2013-05-26 16:03:00,
2013-05-26 09:05:00,52.3,45.3,29.85,NNE,17,0.0,0.0,77,0.04,,,0.31,VWS V14.01,2013-05-26 16:05:00,
2013-05-26 09:08:00,52.5,45.5,29.85,NNE,17,0.0,0.0,77,0.04,,,0.31,VWS V14.01,2013-05-26 16:08:00,
2013-05-26 09:11:00,52.9,45.9,29.85,NNE,17,0.0,0.0,77,0.04,,,0.31,VWS V14.01,2013-05-26 16:11:00,
2013-05-26 09:12:00,52.7,45.7,29.85,NNE,17,0.0,0.0,77,0.04,,,0.31,VWS V14.01,2013-05-26 16:12:00,
2013-05-26 09:13:00,52.7,45.7,29.85,NNE,17,0.0,0.0,77,0.04,,,0.31,VWS V14.01,2013-05-26 16:13:00,
2013-05-26 09:15:00,52.9,45.9,29.85,WSW,256,0.0,0.0,77,0.04,,,0.31,VWS V14.01,2013-05-26 16:15:00,
2013-05-26 09:16:00,52.9,45.9,29.85,WSW,256,0.0,0.0,77,0.04,,,0.31,VWS V14.01,2013-05-26 16:16:00,
2013-05-26 09:18:00,53.1,46.0,29.85,WSW,256,0.0,0.0,77,0.04,,,0.31,VWS V14.01,2013-05-26 16:18:00,
2013-05-26 09:23:00,53.1,46.0,29.85,WSW,256,0.0,0.0,77,0.04,,,0.31,VWS V14.01,2013-05-26 16:23:00,
2013-05-26 09:24:00,52.7,45.7,29.85,WSW,256,0.0,0.0,77,0.04,,,0.31,VWS V14.01,2013-05-26 16:24:00,
2013-05-26 09:25:00,52.5,45.5,29.85,WSW,256,0.0,0.0,77,0.04,,,0.31,VWS V14.01,2013-05-26 16:25:00,
2013-05-26 09:29:00,52.9,45.9,29.85,WSW,256,0.0,0.0,77,0.04,,,0.31,VWS V14.01,2013-05-26 16:29:00,
2013-05-26 09:30:00,53.1,46.0,29.85,WSW,256,0.0,0.0,77,0.04,,,0.31,VWS V14.01,2013-05-26 16:30:00,
2013-05-26 09:31:00,52.9,45.9,29.85,WSW,256,0.0,0.0,77,0.04,,,0.31,VWS V14.01,2013-05-26 16:31:00,
2013-05-26 09:32:00,52.9,45.9,29.85,WSW,256,0.0,0.0,77,0.04,,,0.31,VWS V14.01,2013-05-26 16:32:00,
2013-05-26 09:35:00,53.1,46.0,29.85,WSW,256,0.0,0.0,77,0.04,,,0.31,VWS V14.01,2013-05-26 16:35:00,
2013-05-26 09:36:00,53.2,46.2,29.85,WSW,256,0.0,0.0,77,0.04,,,0.31,VWS V14.01,2013-05-26 16:36:00,
2013-05-26 09:37:00,53.4,46.4,29.85,WNW,299,0.0,0.0,77,0.04,,,0.31,VWS V14.01,2013-05-26 16:37:00,
2013-05-26 09:38:00,53.2,46.2,29.85,North,1,2.2,2.7,77,0.04,,,0.31,VWS V14.01,2013-05-26 16:38:00,
2013-05-26 09:40:00,53.2,46.2,29.85,North,1,0.0,0.0,77,0.04,,,0.31,VWS V14.01,2013-05-26 16:40:00,
2013-05-26 09:42:00,53.2,46.2,29.85,North,1,0.0,0.0,77,0.04,,,0.31,VWS V14.01,2013-05-26 16:42:00,
2013-05-26 09:44:00,53.2,46.2,29.85,North,1,0.0,0.0,77,0.08,,,0.35,VWS V14.01,2013-05-26 16:44:00,
2013-05-26 09:46:00,53.4,46.4,29.85,North,1,0.0,0.0,77,0.04,,,0.35,VWS V14.01,2013-05-26 16:46:00,
2013-05-26 09:47:00,53.4,46.4,29.85,North,1,0.0,0.0,77,0.04,,,0.35,VWS V14.01,2013-05-26 16:47:00,
2013-05-26 09:49:00,53.6,46.2,29.85,NNE,17,2.2,3.1,76,0.04,,,0.35,VWS V14.01,2013-05-26 16:49:00,
2013-05-26 09:52:00,53.1,46.0,29.85,ENE,57,0.0,0.0,77,0.04,,,0.35,VWS V14.01,2013-05-26 16:52:00,
2013-05-26 09:54:00,53.2,46.2,29.85,ENE,57,0.0,0.0,77,0.04,,,0.35,VWS V14.01,2013-05-26 16:54:00,
2013-05-26 09:55:00,53.2,46.2,29.85,North,357,2.2,4.0,77,0.04,,,0.35,VWS V14.01,2013-05-26 16:55:00,
2013-05-26 09:56:00,53.1,46.0,29.85,SE,131,0.0,2.2,77,0.04,,,0.35,VWS V14.01,2013-05-26 16:56:00,
2013-05-26 09:58:00,53.2,46.2,29.85,SE,131,0.0,0.0,77,0.04,,,0.35,VWS V14.01,2013-05-26 16:58:00,
2013-05-26 09:59:00,53.2,46.2,29.85,SE,131,0.0,0.0,77,0.04,,,0.35,VWS V14.01,2013-05-26 16:59:00,
2013-05-26 10:00:00,53.4,46.4,29.85,NNE,16,0.0,0.0,77,0.04,,,0.35,VWS V14.01,2013-05-26 17:00:00,
2013-05-26 10:02:00,53.2,46.2,29.85,ENE,60,2.7,3.6,77,0.04,,,0.35,VWS V14.01,2013-05-26 17:02:00,
2013-05-26 10:05:00,53.2,45.9,29.85,NE,38,0.0,0.0,76,0.04,,,0.35,VWS V14.01,2013-05-26 17:05:00,
2013-05-26 10:07:00,53.2,45.9,29.85,North,0,2.7,2.7,76,0.04,,,0.35,VWS V14.01,2013-05-26 17:07:00,
2013-05-26 10:08:00,53.2,45.9,29.85,North,0,0.0,2.7,76,0.04,,,0.35,VWS V14.01,2013-05-26 17:08:00,
2013-05-26 10:10:00,53.4,46.1,29.85,North,357,0.0,0.0,76,0.04,,,0.35,VWS V14.01,2013-05-26 17:10:00,
2013-05-26 10:11:00,53.4,46.1,29.85,North,357,0.0,0.0,76,0.04,,,0.35,VWS V14.01,2013-05-26 17:11:00,
2013-05-26 10:13:00,53.8,46.4,29.85,North,0,0.0,0.0,76,0.04,,,0.35,VWS V14.01,2013-05-26 17:13:00,
2013-05-26 10:14:00,53.8,46.4,29.85,North,0,0.0,0.0,76,0.04,,,0.35,VWS V14.01,2013-05-26 17:14:00,
2013-05-26 10:15:00,54.0,46.6,29.85,North,0,0.0,0.0,76,0.04,,,0.35,VWS V14.01,2013-05-26 17:15:00,
2013-05-26 10:18:00,54.3,46.9,29.85,North,0,0.0,0.0,76,0.04,,,0.35,VWS V14.01,2013-05-26 17:18:00,
2013-05-26 10:20:00,54.3,46.9,29.85,NNE,15,0.0,0.0,76,0.04,,,0.35,VWS V14.01,2013-05-26 17:20:00,
2013-05-26 10:22:00,54.5,47.1,29.85,NNE,15,0.0,0.0,76,0.04,,,0.35,VWS V14.01,2013-05-26 17:22:00,
2013-05-26 10:24:00,54.5,47.1,29.85,NNE,15,0.0,0.0,76,0.04,,,0.35,VWS V14.01,2013-05-26 17:24:00,
2013-05-26 10:26:00,54.7,47.3,29.85,NNE,15,0.0,0.0,76,0.04,,,0.35,VWS V14.01,2013-05-26 17:26:00,
2013-05-26 10:27:00,54.5,47.1,29.85,ESE,117,2.2,2.2,76,0.04,,,0.35,VWS V14.01,2013-05-26 17:27:00,
2013-05-26 10:30:00,54.0,46.6,29.85,NE,34,0.0,3.1,76,0.04,,,0.35,VWS V14.01,2013-05-26 17:30:00,
2013-05-26 10:31:00,54.0,46.6,29.85,NE,34,0.0,0.0,76,0.04,,,0.35,VWS V14.01,2013-05-26 17:31:00,
2013-05-26 10:33:00,54.0,46.6,29.85,NE,48,0.0,0.0,76,0.04,,,0.35,VWS V14.01,2013-05-26 17:33:00,
2013-05-26 10:35:00,54.3,46.9,29.85,NE,48,0.0,0.0,76,0.04,,,0.35,VWS V14.01,2013-05-26 17:35:00,
2013-05-26 10:36:00,54.3,46.9,29.85,NE,48,0.0,0.0,76,0.04,,,0.35,VWS V14.01,2013-05-26 17:36:00,
2013-05-26 10:37:00,54.5,47.1,29.85,SE,129,2.2,2.2,76,0.04,,,0.35,VWS V14.01,2013-05-26 17:37:00,
2013-05-26 10:41:00,54.7,47.3,29.85,ESE,108,0.0,0.0,76,0.04,,,0.35,VWS V14.01,2013-05-26 17:41:00,
2013-05-26 10:42:00,54.9,47.5,29.85,ESE,108,0.0,0.0,76,0.04,,,0.35,VWS V14.01,2013-05-26 17:42:00,
2013-05-26 10:43:00,54.7,47.3,29.85,NNE,24,0.0,3.1,76,0.04,,,0.35,VWS V14.01,2013-05-26 17:43:00,
2013-05-26 10:46:00,54.5,47.1,29.85,ENE,77,0.0,0.0,76,0.00,,,0.35,VWS V14.01,2013-05-26 17:46:00,
2013-05-26 10:47:00,54.5,47.1,29.85,North,10,2.2,3.6,76,0.00,,,0.35,VWS V14.01,2013-05-26 17:47:00,
2013-05-26 10:48:00,54.5,47.1,29.85,North,10,0.0,2.2,76,0.00,,,0.35,VWS V14.01,2013-05-26 17:48:00,
2013-05-26 10:51:00,54.7,47.3,29.85,NNW,340,0.0,0.0,76,0.00,,,0.35,VWS V14.01,2013-05-26 17:51:00,
2013-05-26 10:52:00,54.3,46.9,29.85,NNE,23,4.0,6.3,76,0.00,,,0.35,VWS V14.01,2013-05-26 17:52:00,
2013-05-26 10:54:00,54.3,46.9,29.85,North,0,3.6,4.0,76,0.00,,,0.35,VWS V14.01,2013-05-26 17:54:00,
2013-05-26 10:59:00,54.7,47.3,29.85,NNE,20,2.2,2.7,76,0.00,,,0.35,VWS V14.01,2013-05-26 17:59:00,
2013-05-26 11:00:00,54.7,47.3,29.85,NNE,20,0.0,3.1,76,0.00,,,0.35,VWS V14.01,2013-05-26 18:00:00,
2013-05-26 11:01:00,54.7,47.3,29.85,North,350,3.1,3.6,76,0.00,,,0.35,VWS V14.01,2013-05-26 18:01:00,
2013-05-26 11:05:00,54.5,47.1,29.85,North,0,0.0,0.0,76,0.00,,,0.35,VWS V14.01,2013-05-26 18:05:00,
2013-05-26 11:06:00,54.5,47.1,29.85,NNW,348,0.0,0.0,76,0.00,,,0.35,VWS V14.01,2013-05-26 18:06:00,
2013-05-26 11:07:00,54.5,47.1,29.85,NNW,345,0.0,2.2,76,0.00,,,0.35,VWS V14.01,2013-05-26 18:07:00,
2013-05-26 11:12:00,55.4,47.6,29.85,NNE,16,0.0,0.0,75,0.00,,,0.35,VWS V14.01,2013-05-26 18:12:00,
2013-05-26 11:13:00,55.2,47.8,29.85,NNE,16,0.0,0.0,76,0.00,,,0.35,VWS V14.01,2013-05-26 18:13:00,
2013-05-26 11:14:00,55.2,47.8,29.85,NNE,16,0.0,0.0,76,0.00,,,0.35,VWS V14.01,2013-05-26 18:14:00,
2013-05-26 11:15:00,55.0,47.6,29.85,NNE,16,0.0,0.0,76,0.00,,,0.35,VWS V14.01,2013-05-26 18:15:00,
2013-05-26 11:19:00,54.1,46.4,29.85,ENE,62,0.0,3.1,75,0.00,,,0.35,VWS V14.01,2013-05-26 18:19:00,
2013-05-26 11:20:00,54.0,46.2,29.85,SSE,162,0.0,0.0,75,0.00,,,0.35,VWS V14.01,2013-05-26 18:20:00,
2013-05-26 11:22:00,54.3,46.6,29.85,SSE,162,0.0,0.0,75,0.00,,,0.35,VWS V14.01,2013-05-26 18:22:00,
2013-05-26 11:23:00,54.3,46.6,29.85,East,96,0.0,0.0,75,0.00,,,0.35,VWS V14.01,2013-05-26 18:23:00,
2013-05-26 11:25:00,54.3,46.6,29.85,ENE,74,0.0,2.2,75,0.00,,,0.35,VWS V14.01,2013-05-26 18:25:00,
2013-05-26 11:26:00,54.3,46.6,29.85,ENE,74,0.0,0.0,75,0.00,,,0.35,VWS V14.01,2013-05-26 18:26:00,
2013-05-26 11:27:00,54.3,46.6,29.85,North,3,0.0,2.2,75,0.00,,,0.35,VWS V14.01,2013-05-26 18:27:00,
2013-05-26 11:30:00,54.0,46.2,29.85,North,353,0.0,0.0,75,0.00,,,0.35,VWS V14.01,2013-05-26 18:30:00,
2013-05-26 11:32:00,53.8,46.0,29.85,NNE,15,3.1,3.1,75,0.00,,,0.35,VWS V14.01,2013-05-26 18:32:00,
2013-05-26 11:34:00,53.8,46.0,29.85,NNE,29,0.0,0.0,75,0.00,,,0.35,VWS V14.01,2013-05-26 18:34:00,
2013-05-26 11:36:00,54.1,46.4,29.85,NNW,338,3.1,3.1,75,0.00,,,0.35,VWS V14.01,2013-05-26 18:36:00,
2013-05-26 11:37:00,54.0,46.2,29.85,NE,51,0.0,3.6,75,0.00,,,0.35,VWS V14.01,2013-05-26 18:37:00,
2013-05-26 11:38:00,54.3,46.6,29.85,NNE,16,0.0,0.0,75,0.00,,,0.35,VWS V14.01,2013-05-26 18:38:00,
2013-05-26 11:39:00,54.3,46.6,29.85,NNE,12,0.0,2.7,75,0.00,,,0.35,VWS V14.01,2013-05-26 18:39:00,
2013-05-26 11:40:00,54.0,46.2,29.85,NNE,29,0.0,0.0,75,0.00,,,0.35,VWS V14.01,2013-05-26 18:40:00,
2013-05-26 11:43:00,54.3,46.6,29.85,North,357,0.0,3.6,75,0.00,,,0.35,VWS V14.01,2013-05-26 18:43:00,
2013-05-26 11:44:00,54.3,46.6,29.85,East,88,0.0,0.0,75,0.00,,,0.35,VWS V14.01,2013-05-26 18:44:00,
2013-05-26 11:45:00,54.1,46.4,29.85,North,8,0.0,4.0,75,0.00,,,0.35,VWS V14.01,2013-05-26 18:45:00,
2013-05-26 11:49:00,54.1,46.4,29.85,North,2,3.6,3.6,75,0.00,,,0.35,VWS V14.01,2013-05-26 18:49:00,
2013-05-26 11:50:00,54.1,46.4,29.85,North,0,0.0,3.6,75,0.00,,,0.35,VWS V14.01,2013-05-26 18:50:00,
2013-05-26 11:52:00,54.3,46.6,29.85,North,357,0.0,0.0,75,0.00,,,0.35,VWS V14.01,2013-05-26 18:52:00,
2013-05-26 11:54:00,54.5,46.8,29.85,NNE,31,0.0,2.2,75,0.00,,,0.35,VWS V14.01,2013-05-26 18:54:00,
2013-05-26 11:55:00,54.5,46.8,29.85,NNE,31,0.0,0.0,75,0.00,,,0.35,VWS V14.01,2013-05-26 18:55:00,
2013-05-26 11:57:00,54.7,46.9,29.85,NNE,31,0.0,0.0,75,0.00,,,0.35,VWS V14.01,2013-05-26 18:57:00,
2013-05-26 12:00:00,54.7,46.9,29.85,NE,36,0.0,0.0,75,0.00,,,0.35,VWS V14.01,2013-05-26 19:00:00,
2013-05-26 12:01:00,54.7,46.9,29.85,NE,36,0.0,0.0,75,0.00,,,0.35,VWS V14.01,2013-05-26 19:01:00,
2013-05-26 12:02:00,54.9,47.1,29.85,NE,36,0.0,0.0,75,0.00,,,0.35,VWS V14.01,2013-05-26 19:02:00,
2013-05-26 12:04:00,55.0,47.3,29.85,North,357,0.0,0.0,75,0.00,,,0.35,VWS V14.01,2013-05-26 19:04:00,
2013-05-26 12:08:00,55.4,47.6,29.85,North,0,0.0,0.0,75,0.00,,,0.35,VWS V14.01,2013-05-26 19:08:00,
2013-05-26 12:10:00,55.4,47.6,29.85,North,357,0.0,0.0,75,0.00,,,0.35,VWS V14.01,2013-05-26 19:10:00,
2013-05-26 12:11:00,54.9,47.1,29.85,West,266,2.2,2.7,75,0.00,,,0.35,VWS V14.01,2013-05-26 19:11:00,
2013-05-26 12:13:00,55.6,47.8,29.85,NNW,340,0.0,0.0,75,0.00,,,0.35,VWS V14.01,2013-05-26 19:13:00,
2013-05-26 12:16:00,55.8,48.0,29.85,North,350,3.1,3.1,75,0.00,,,0.35,VWS V14.01,2013-05-26 19:16:00,
2013-05-26 12:17:00,55.8,48.0,29.85,NE,46,5.4,5.4,75,0.00,,,0.35,VWS V14.01,2013-05-26 19:17:00,
2013-05-26 12:20:00,55.2,47.5,29.85,ENE,73,2.2,4.0,75,0.00,,,0.35,VWS V14.01,2013-05-26 19:20:00,
2013-05-26 12:21:00,55.8,47.6,29.85,ENE,78,0.0,2.2,74,0.00,,,0.35,VWS V14.01,2013-05-26 19:21:00,
2013-05-26 12:23:00,55.8,47.6,29.85,NNE,13,2.2,2.7,74,0.00,,,0.35,VWS V14.01,2013-05-26 19:23:00,
2013-05-26 12:25:00,55.9,47.8,29.85,NW,321,0.0,3.6,74,0.00,,,0.35,VWS V14.01,2013-05-26 19:25:00,
2013-05-26 12:26:00,55.9,47.8,29.85,SW,223,0.0,0.0,74,0.00,,,0.35,VWS V14.01,2013-05-26 19:26:00,
2013-05-26 12:27:00,56.5,48.3,29.85,SW,229,0.0,0.0,74,0.00,,,0.35,VWS V14.01,2013-05-26 19:27:00,
2013-05-26 12:28:00,56.7,48.5,29.85,NNW,346,0.0,0.0,74,0.00,,,0.35,VWS V14.01,2013-05-26 19:28:00,
2013-05-26 12:30:00,55.6,47.4,29.85,ENE,75,0.0,4.0,74,0.00,,,0.35,VWS V14.01,2013-05-26 19:30:00,
2013-05-26 12:32:00,56.3,48.1,29.85,North,0,2.7,3.1,74,0.00,,,0.35,VWS V14.01,2013-05-26 19:32:00,
2013-05-26 12:34:00,56.1,48.0,29.85,ESE,118,0.0,0.0,74,0.00,,,0.35,VWS V14.01,2013-05-26 19:34:00,
2013-05-26 12:35:00,56.8,48.7,29.85,ESE,111,0.0,0.0,74,0.00,,,0.35,VWS V14.01,2013-05-26 19:35:00,
2013-05-26 12:36:00,57.0,48.8,29.85,East,86,0.0,0.0,74,0.00,,,0.35,VWS V14.01,2013-05-26 19:36:00,
2013-05-26 12:38:00,57.0,48.5,29.85,WNW,292,3.1,3.6,73,0.00,,,0.35,VWS V14.01,2013-05-26 19:38:00,
2013-05-26 12:40:00,57.2,48.3,29.85,North,9,0.0,5.4,72,0.00,,,0.35,VWS V14.01,2013-05-26 19:40:00,
2013-05-26 12:41:00,56.8,48.3,29.85,ENE,74,4.0,4.0,73,0.00,,,0.35,VWS V14.01,2013-05-26 19:41:00,
2013-05-26 12:42:00,57.2,48.3,29.85,WNW,295,0.0,4.0,72,0.00,,,0.35,VWS V14.01,2013-05-26 19:42:00,
2013-05-26 12:45:00,57.2,48.3,29.85,NE,46,0.0,4.0,72,0.00,,,0.35,VWS V14.01,2013-05-26 19:45:00,
2013-05-26 12:46:00,57.2,47.9,29.85,NNE,15,4.0,6.3,71,0.00,,,0.35,VWS V14.01,2013-05-26 19:46:00,
2013-05-26 12:49:00,58.5,49.5,29.85,NE,51,3.1,3.1,72,0.00,,,0.35,VWS V14.01,2013-05-26 19:49:00,
2013-05-26 12:51:00,57.4,48.1,29.85,NE,34,4.0,6.3,71,0.00,,,0.35,VWS V14.01,2013-05-26 19:51:00,
2013-05-26 12:53:00,56.7,47.0,29.85,ENE,59,4.0,5.8,70,0.00,,,0.35,VWS V14.01,2013-05-26 19:53:00,
2013-05-26 12:54:00,56.7,46.6,29.85,ESE,106,0.0,4.0,69,0.00,,,0.35,VWS V14.01,2013-05-26 19:54:00,
2013-05-26 12:55:00,56.7,47.0,29.85,East,93,0.0,4.9,70,0.00,,,0.35,VWS V14.01,2013-05-26 19:55:00,
2013-05-26 12:57:00,56.1,46.9,29.85,South,188,4.0,4.0,71,0.00,,,0.35,VWS V14.01,2013-05-26 19:57:00,
2013-05-26 12:59:00,56.7,47.4,29.85,NNE,19,0.0,0.0,71,0.00,,,0.35,VWS V14.01,2013-05-26 19:59:00,
2013-05-26 13:00:00,56.7,47.4,29.85,North,10,2.7,4.5,71,0.00,,,0.35,VWS V14.01,2013-05-26 20:00:00,
2013-05-26 13:02:00,56.7,47.4,29.85,North,349,0.0,6.3,71,0.00,,,0.35,VWS V14.01,2013-05-26 20:02:00,
2013-05-26 13:04:00,56.1,46.9,29.85,ENE,77,3.1,5.4,71,0.00,,,0.35,VWS V14.01,2013-05-26 20:04:00,
2013-05-26 13:07:00,56.7,47.8,29.85,NE,39,0.0,3.1,72,0.00,,,0.35,VWS V14.01,2013-05-26 20:07:00,
2013-05-26 13:09:00,56.7,47.8,29.85,North,357,4.0,4.0,72,0.00,,,0.35,VWS V14.01,2013-05-26 20:09:00,
2013-05-26 13:12:00,57.2,48.3,29.85,ENE,66,0.0,2.7,72,0.00,,,0.35,VWS V14.01,2013-05-26 20:12:00,
2013-05-26 13:13:00,57.6,49.0,29.85,SSW,212,0.0,0.0,73,0.00,,,0.35,VWS V14.01,2013-05-26 20:13:00,
2013-05-26 13:15:00,58.6,50.4,29.85,SW,222,0.0,0.0,74,0.00,,,0.35,VWS V14.01,2013-05-26 20:15:00,
2013-05-26 13:16:00,58.6,50.4,29.85,NNW,339,3.6,3.6,74,0.00,,,0.35,VWS V14.01,2013-05-26 20:16:00,
2013-05-26 13:17:00,56.8,47.5,29.85,East,81,5.8,5.8,71,0.00,,,0.35,VWS V14.01,2013-05-26 20:17:00,
2013-05-26 13:21:00,57.2,48.3,29.85,North,5,3.1,3.1,72,0.00,,,0.35,VWS V14.01,2013-05-26 20:21:00,
2013-05-26 13:22:00,57.4,48.4,29.85,North,5,0.0,3.1,72,0.00,,,0.35,VWS V14.01,2013-05-26 20:22:00,
2013-05-26 13:25:00,57.2,47.9,29.85,North,2,2.7,3.1,71,0.00,,,0.35,VWS V14.01,2013-05-26 20:25:00,
2013-05-26 13:26:00,57.2,47.9,29.85,NNE,31,4.9,4.9,71,0.00,,,0.35,VWS V14.01,2013-05-26 20:26:00,
2013-05-26 13:28:00,57.2,47.9,29.85,North,10,3.6,4.0,71,0.00,,,0.35,VWS V14.01,2013-05-26 20:28:00,
2013-05-26 13:31:00,56.8,47.9,29.85,WSW,254,0.0,2.2,72,0.00,,,0.35,VWS V14.01,2013-05-26 20:31:00,
2013-05-26 13:34:00,56.5,46.8,29.85,NE,50,4.0,4.0,70,0.00,,,0.35,VWS V14.01,2013-05-26 20:34:00,
2013-05-26 13:36:00,56.8,47.5,29.85,West,273,0.0,4.0,71,0.00,,,0.35,VWS V14.01,2013-05-26 20:36:00,
2013-05-26 13:38:00,56.8,47.9,29.85,North,0,0.0,3.6,72,0.00,,,0.35,VWS V14.01,2013-05-26 20:38:00,
2013-05-26 13:42:00,57.0,48.1,29.85,ENE,57,4.0,4.0,72,0.00,,,0.35,VWS V14.01,2013-05-26 20:42:00,
2013-05-26 13:44:00,57.4,48.1,29.85,ENE,64,0.0,2.7,71,0.00,,,0.35,VWS V14.01,2013-05-26 20:44:00,
2013-05-26 13:47:00,56.7,47.4,29.85,SSW,210,0.0,2.7,71,0.00,,,0.35,VWS V14.01,2013-05-26 20:47:00,
2013-05-26 13:48:00,56.7,47.4,29.85,SSE,155,0.0,0.0,71,0.00,,,0.35,VWS V14.01,2013-05-26 20:48:00,
2013-05-26 13:50:00,56.7,47.0,29.85,WSW,242,3.1,3.1,70,0.00,,,0.35,VWS V14.01,2013-05-26 20:50:00,
2013-05-26 13:53:00,57.4,48.1,29.85,SSW,210,0.0,2.7,71,0.00,,,0.35,VWS V14.01,2013-05-26 20:53:00,
2013-05-26 13:54:00,57.6,48.2,29.85,North,0,2.7,2.7,71,0.00,,,0.35,VWS V14.01,2013-05-26 20:54:00,
2013-05-26 13:55:00,57.2,47.5,29.85,North,357,2.2,3.1,70,0.00,,,0.35,VWS V14.01,2013-05-26 20:55:00,
2013-05-26 13:59:00,56.5,46.5,29.85,SW,221,0.0,2.2,69,0.00,,,0.35,VWS V14.01,2013-05-26 20:59:00,
2013-05-26 14:01:00,57.7,48.0,29.85,South,190,4.0,4.0,70,0.00,,,0.35,VWS V14.01,2013-05-26 21:01:00,
2013-05-26 14:03:00,57.2,47.1,29.85,WSW,239,0.0,2.2,69,0.00,,,0.35,VWS V14.01,2013-05-26 21:03:00,
2013-05-26 14:04:00,56.7,46.6,29.85,SSW,200,2.7,4.0,69,0.00,,,0.35,VWS V14.01,2013-05-26 21:04:00,
2013-05-26 14:07:00,57.2,47.5,29.85,SSW,211,2.7,3.6,70,0.00,,,0.35,VWS V14.01,2013-05-26 21:07:00,
2013-05-26 14:10:00,57.2,47.1,29.85,WNW,293,0.0,0.0,69,0.00,,,0.35,VWS V14.01,2013-05-26 21:10:00,
2013-05-26 14:11:00,57.4,47.7,29.85,North,3,2.2,2.7,70,0.00,,,0.35,VWS V14.01,2013-05-26 21:11:00,
2013-05-26 14:12:00,57.4,47.7,29.85,North,349,2.2,3.6,70,0.00,,,0.35,VWS V14.01,2013-05-26 21:12:00,
2013-05-26 14:17:00,58.1,48.4,29.85,NNE,27,0.0,0.0,70,0.00,,,0.35,VWS V14.01,2013-05-26 21:17:00,
2013-05-26 14:18:00,58.1,48.0,29.85,NNE,28,0.0,0.0,69,0.00,,,0.35,VWS V14.01,2013-05-26 21:18:00,
2013-05-26 14:20:00,57.9,47.8,29.85,SSW,204,3.6,3.6,69,0.00,,,0.35,VWS V14.01,2013-05-26 21:20:00,
2013-05-26 14:22:00,57.7,46.5,29.85,WSW,244,0.0,3.1,66,0.00,,,0.35,VWS V14.01,2013-05-26 21:22:00,
2013-05-26 14:23:00,57.7,46.9,29.85,SW,218,2.7,2.7,67,0.00,,,0.35,VWS V14.01,2013-05-26 21:23:00,
2013-05-26 14:24:00,57.7,46.9,29.85,NE,55,3.1,3.1,67,0.00,,,0.35,VWS V14.01,2013-05-26 21:24:00,
2013-05-26 14:26:00,57.9,46.6,29.85,North,11,0.0,2.2,66,0.00,,,0.35,VWS V14.01,2013-05-26 21:26:00,
2013-05-26 14:28:00,57.9,47.0,29.85,West,281,0.0,2.7,67,0.00,,,0.35,VWS V14.01,2013-05-26 21:28:00,
2013-05-26 14:29:00,57.6,46.7,29.85,NNE,16,2.2,2.2,67,0.00,,,0.35,VWS V14.01,2013-05-26 21:29:00,
2013-05-26 14:30:00,57.9,47.0,29.85,North,357,0.0,3.1,67,0.00,,,0.35,VWS V14.01,2013-05-26 21:30:00,
2013-05-26 14:34:00,57.0,45.0,29.85,WSW,239,0.0,0.0,64,0.00,,,0.35,VWS V14.01,2013-05-26 21:34:00,
2013-05-26 14:35:00,57.9,46.6,29.85,West,276,0.0,3.1,66,0.00,,,0.35,VWS V14.01,2013-05-26 21:35:00,
2013-05-26 14:36:00,58.1,47.2,29.85,West,261,0.0,0.0,67,0.00,,,0.35,VWS V14.01,2013-05-26 21:36:00,
2013-05-26 14:40:00,57.2,45.6,29.85,SW,225,2.7,2.7,65,0.00,,,0.35,VWS V14.01,2013-05-26 21:40:00,
2013-05-26 14:41:00,57.6,46.3,29.85,WSW,247,0.0,2.7,66,0.00,,,0.35,VWS V14.01,2013-05-26 21:41:00,
2013-05-26 14:42:00,57.9,47.0,29.85,WSW,241,0.0,0.0,67,0.00,,,0.35,VWS V14.01,2013-05-26 21:42:00,
2013-05-26 14:44:00,58.1,47.2,29.85,NNE,19,0.0,2.2,67,0.00,,,0.35,VWS V14.01,2013-05-26 21:44:00,
2013-05-26 14:47:00,57.9,46.2,29.85,North,357,3.1,4.0,65,0.00,,,0.35,VWS V14.01,2013-05-26 21:47:00,
2013-05-26 14:48:00,57.9,46.6,29.85,NNE,17,2.2,3.1,66,0.00,,,0.35,VWS V14.01,2013-05-26 21:48:00,
2013-05-26 14:49:00,58.1,47.2,29.85,NNE,20,0.0,2.2,67,0.00,,,0.35,VWS V14.01,2013-05-26 21:49:00,
2013-05-26 14:53:00,57.7,46.5,29.85,SW,217,0.0,0.0,66,0.00,,,0.35,VWS V14.01,2013-05-26 21:53:00,
2013-05-26 14:55:00,58.3,47.8,29.85,SE,136,0.0,0.0,68,0.00,,,0.35,VWS V14.01,2013-05-26 21:55:00,
2013-05-26 14:56:00,58.5,48.0,29.85,SE,145,0.0,0.0,68,0.00,,,0.35,VWS V14.01,2013-05-26 21:56:00,
2013-05-26 14:57:00,58.6,47.7,29.85,SSW,204,2.7,2.7,67,0.00,,,0.35,VWS V14.01,2013-05-26 21:57:00,
2013-05-26 15:02:00,57.4,45.3,29.85,SW,226,0.0,3.6,64,0.00,,,0.35,VWS V14.01,2013-05-26 22:02:00,
2013-05-26 15:03:00,58.3,47.4,29.85,SW,226,0.0,0.0,67,0.00,,,0.35,VWS V14.01,2013-05-26 22:03:00,
2013-05-26 15:04:00,58.1,46.4,29.85,SW,228,0.0,0.0,65,0.00,,,0.35,VWS V14.01,2013-05-26 22:04:00,
2013-05-26 15:07:00,57.9,45.8,29.85,ENE,57,2.2,2.7,64,0.00,,,0.35,VWS V14.01,2013-05-26 22:07:00,
2013-05-26 15:08:00,57.9,46.2,29.85,NE,37,2.7,2.7,65,0.00,,,0.35,VWS V14.01,2013-05-26 22:08:00,
2013-05-26 15:09:00,57.7,46.1,29.85,NE,45,3.6,3.6,65,0.00,,,0.35,VWS V14.01,2013-05-26 22:09:00,
2013-05-26 15:10:00,57.4,44.9,29.85,ENE,61,3.1,3.6,63,0.00,,,0.35,VWS V14.01,2013-05-26 22:10:00,
2013-05-26 15:13:00,57.4,45.3,29.85,ENE,61,3.1,3.1,64,0.00,,,0.35,VWS V14.01,2013-05-26 22:13:00,
2013-05-26 15:14:00,57.4,45.7,29.85,ENE,61,3.1,3.1,65,0.00,,,0.35,VWS V14.01,2013-05-26 22:14:00,
2013-05-26 15:15:00,57.4,46.1,29.85,NNE,32,0.0,3.1,66,0.00,,,0.35,VWS V14.01,2013-05-26 22:15:00,
2013-05-26 15:18:00,57.6,46.7,29.85,WNW,297,0.0,0.0,67,0.00,,,0.35,VWS V14.01,2013-05-26 22:18:00,
2013-05-26 15:19:00,57.7,47.3,29.85,WNW,297,0.0,0.0,68,0.00,,,0.35,VWS V14.01,2013-05-26 22:19:00,
2013-05-26 15:21:00,57.4,46.5,29.85,SSW,208,0.0,0.0,67,0.00,,,0.35,VWS V14.01,2013-05-26 22:21:00,
2013-05-26 15:24:00,57.9,47.8,29.85,SSW,208,0.0,0.0,69,0.00,,,0.35,VWS V14.01,2013-05-26 22:24:00,
2013-05-26 15:25:00,57.6,47.1,29.85,SE,146,0.0,0.0,68,0.00,,,0.35,VWS V14.01,2013-05-26 22:25:00,
2013-05-26 15:27:00,57.2,46.0,29.85,East,86,0.0,0.0,66,0.00,,,0.35,VWS V14.01,2013-05-26 22:27:00,
2013-05-26 15:29:00,57.6,47.1,29.85,East,91,0.0,0.0,68,0.00,,,0.35,VWS V14.01,2013-05-26 22:29:00,
2013-05-26 15:30:00,57.6,47.1,29.85,East,91,0.0,0.0,68,0.00,,,0.35,VWS V14.01,2013-05-26 22:30:00,
2013-05-26 15:31:00,57.4,46.5,29.85,East,92,0.0,0.0,67,0.00,,,0.35,VWS V14.01,2013-05-26 22:31:00,
2013-05-26 15:33:00,57.4,46.5,29.85,East,92,0.0,0.0,67,0.00,,,0.35,VWS V14.01,2013-05-26 22:33:00,
2013-05-26 15:36:00,57.6,47.1,29.85,East,92,0.0,0.0,68,0.00,,,0.35,VWS V14.01,2013-05-26 22:36:00,
2013-05-26 15:37:00,57.6,47.1,29.85,East,92,0.0,0.0,68,0.00,,,0.35,VWS V14.01,2013-05-26 22:37:00,
2013-05-26 15:39:00,57.6,47.1,29.85,East,92,0.0,0.0,68,0.00,,,0.35,VWS V14.01,2013-05-26 22:39:00,
2013-05-26 15:42:00,57.9,47.8,29.85,North,350,0.0,0.0,69,0.00,,,0.35,VWS V14.01,2013-05-26 22:42:00,
2013-05-26 15:43:00,58.1,48.4,29.85,North,350,0.0,0.0,70,0.00,,,0.35,VWS V14.01,2013-05-26 22:43:00,
2013-05-26 15:46:00,57.9,47.4,29.85,North,350,0.0,0.0,68,0.00,,,0.35,VWS V14.01,2013-05-26 22:46:00,
2013-05-26 15:47:00,57.7,47.3,29.85,North,350,0.0,0.0,68,0.00,,,0.35,VWS V14.01,2013-05-26 22:47:00,
2013-05-26 15:49:00,57.9,47.0,29.85,North,350,0.0,0.0,67,0.00,,,0.35,VWS V14.01,2013-05-26 22:49:00,
2013-05-26 15:51:00,58.1,47.6,29.85,North,350,0.0,0.0,68,0.00,,,0.35,VWS V14.01,2013-05-26 22:51:00,
2013-05-26 15:52:00,58.1,47.6,29.85,North,350,0.0,0.0,68,0.00,,,0.35,VWS V14.01,2013-05-26 22:52:00,
2013-05-26 15:53:00,58.1,47.6,29.85,North,350,0.0,0.0,68,0.00,,,0.35,VWS V14.01,2013-05-26 22:53:00,
2013-05-26 15:56:00,57.9,47.0,29.85,North,350,0.0,0.0,67,0.00,,,0.35,VWS V14.01,2013-05-26 22:56:00,
2013-05-26 15:57:00,57.9,47.0,29.85,North,350,0.0,0.0,67,0.00,,,0.35,VWS V14.01,2013-05-26 22:57:00,
2013-05-26 15:59:00,58.1,47.2,29.85,NNW,341,0.0,0.0,67,0.00,,,0.35,VWS V14.01,2013-05-26 22:59:00,
2013-05-26 16:03:00,57.9,47.0,29.85,North,349,0.0,0.0,67,0.00,,,0.35,VWS V14.01,2013-05-26 23:03:00,
2013-05-26 16:04:00,57.9,47.0,29.85,North,349,0.0,0.0,67,0.00,,,0.35,VWS V14.01,2013-05-26 23:04:00,
2013-05-26 16:06:00,58.1,47.2,29.85,North,0,0.0,0.0,67,0.00,,,0.35,VWS V14.01,2013-05-26 23:06:00,
2013-05-26 16:08:00,58.3,47.8,29.85,NNE,33,0.0,0.0,68,0.00,,,0.35,VWS V14.01,2013-05-26 23:08:00,
2013-05-26 16:09:00,58.3,47.8,29.85,NNE,33,0.0,0.0,68,0.00,,,0.35,VWS V14.01,2013-05-26 23:09:00,
2013-05-26 16:10:00,58.1,47.2,29.85,NNE,33,0.0,0.0,67,0.00,,,0.35,VWS V14.01,2013-05-26 23:10:00,
2013-05-26 16:11:00,58.1,47.2,29.85,North,357,0.0,0.0,67,0.00,,,0.35,VWS V14.01,2013-05-26 23:11:00,
2013-05-26 16:16:00,58.5,47.6,29.85,North,357,0.0,0.0,67,0.00,,,0.35,VWS V14.01,2013-05-26 23:16:00,
2013-05-26 16:17:00,58.5,47.6,29.85,North,357,0.0,0.0,67,0.00,,,0.35,VWS V14.01,2013-05-26 23:17:00,
2013-05-26 16:18:00,58.5,47.6,29.85,North,357,0.0,0.0,67,0.00,,,0.35,VWS V14.01,2013-05-26 23:18:00,
2013-05-26 16:19:00,58.5,47.6,29.85,North,357,0.0,0.0,67,0.00,,,0.35,VWS V14.01,2013-05-26 23:19:00,
2013-05-26 16:23:00,58.5,47.6,29.85,North,357,0.0,0.0,67,0.00,,,0.35,VWS V14.01,2013-05-26 23:23:00,
2013-05-26 16:24:00,58.6,47.7,29.85,North,357,0.0,0.0,67,0.00,,,0.35,VWS V14.01,2013-05-26 23:24:00,
2013-05-26 16:25:00,58.6,47.3,29.83,North,357,0.0,0.0,66,0.00,,,0.35,VWS V14.01,2013-05-26 23:25:00,
2013-05-26 16:28:00,58.8,47.5,29.83,NNE,17,0.0,0.0,66,0.00,,,0.35,VWS V14.01,2013-05-26 23:28:00,
2013-05-26 16:29:00,59.0,47.7,29.83,NNE,17,0.0,0.0,66,0.00,,,0.35,VWS V14.01,2013-05-26 23:29:00,
2013-05-26 16:30:00,59.0,47.7,29.83,NNE,17,0.0,0.0,66,0.00,,,0.35,VWS V14.01,2013-05-26 23:30:00,
2013-05-26 16:31:00,58.8,47.5,29.83,NNE,17,0.0,0.0,66,0.00,,,0.35,VWS V14.01,2013-05-26 23:31:00,
2013-05-26 16:32:00,58.8,47.5,29.83,NNE,17,0.0,0.0,66,0.00,,,0.35,VWS V14.01,2013-05-26 23:32:00,
2013-05-26 16:36:00,58.8,47.1,29.83,NNE,17,0.0,0.0,65,0.00,,,0.35,VWS V14.01,2013-05-26 23:36:00,
2013-05-26 16:38:00,58.8,47.1,29.83,NNE,17,0.0,0.0,65,0.00,,,0.35,VWS V14.01,2013-05-26 23:38:00,
2013-05-26 16:39:00,58.8,47.1,29.85,NNE,17,0.0,0.0,65,0.00,,,0.35,VWS V14.01,2013-05-26 23:39:00,
2013-05-26 16:41:00,58.8,47.1,29.85,NNE,17,0.0,0.0,65,0.00,,,0.35,VWS V14.01,2013-05-26 23:41:00,
2013-05-26 16:42:00,58.8,47.1,29.85,NNE,17,0.0,0.0,65,0.00,,,0.35,VWS V14.01,2013-05-26 23:42:00,
2013-05-26 16:43:00,58.5,46.8,29.85,NNE,17,0.0,0.0,65,0.00,,,0.35,VWS V14.01,2013-05-26 23:43:00,
2013-05-26 16:47:00,58.5,46.8,29.85,NNE,17,0.0,0.0,65,0.00,,,0.35,VWS V14.01,2013-05-26 23:47:00,
2013-05-26 16:50:00,58.5,47.6,29.85,NNE,17,0.0,0.0,67,0.00,,,0.35,VWS V14.01,2013-05-26 23:50:00,
2013-05-26 16:51:00,58.5,48.0,29.85,NNE,17,0.0,0.0,68,0.00,,,0.35,VWS V14.01,2013-05-26 23:51:00,
2013-05-26 16:52:00,58.3,47.4,29.85,NNE,17,0.0,0.0,67,0.00,,,0.35,VWS V14.01,2013-05-26 23:52:00,
2013-05-26 16:54:00,58.3,47.8,29.85,NNE,17,0.0,0.0,68,0.00,,,0.35,VWS V14.01,2013-05-26 23:54:00,
2013-05-26 16:57:00,58.3,47.4,29.85,NNE,17,0.0,0.0,67,0.00,,,0.35,VWS V14.01,2013-05-26 23:57:00,
2013-05-26 16:59:00,58.3,47.8,29.85,NNE,17,0.0,0.0,68,0.00,,,0.35,VWS V14.01,2013-05-26 23:59:00,
2013-05-26 17:00:00,58.1,47.6,29.85,NNE,17,0.0,0.0,68,0.00,,,0.35,VWS V14.01,2013-05-27 00:00:00,
2013-05-26 17:04:00,58.1,48.0,29.85,ENE,65,0.0,2.2,69,0.00,,,0.35,VWS V14.01,2013-05-27 00:04:00,
2013-05-26 17:05:00,58.1,48.0,29.85,ENE,65,0.0,0.0,69,0.00,,,0.35,VWS V14.01,2013-05-27 00:05:00,
2013-05-26 17:07:00,57.9,47.8,29.85,ENE,65,0.0,0.0,69,0.00,,,0.35,VWS V14.01,2013-05-27 00:07:00,
2013-05-26 17:08:00,57.9,47.8,29.85,ENE,65,0.0,0.0,69,0.00,,,0.35,VWS V14.01,2013-05-27 00:08:00,
2013-05-26 17:10:00,58.1,48.4,29.85,ENE,65,0.0,0.0,70,0.00,,,0.35,VWS V14.01,2013-05-27 00:10:00,
2013-05-26 17:11:00,58.3,48.9,29.85,ENE,65,0.0,0.0,71,0.00,,,0.35,VWS V14.01,2013-05-27 00:11:00,
2013-05-26 17:12:00,58.1,48.8,29.85,ENE,65,0.0,0.0,71,0.00,,,0.35,VWS V14.01,2013-05-27 00:12:00,
2013-05-26 17:14:00,57.9,48.2,29.85,ENE,65,0.0,0.0,70,0.00,,,0.35,VWS V14.01,2013-05-27 00:14:00,
2013-05-26 17:16:00,57.9,48.2,29.85,North,353,0.0,0.0,70,0.00,,,0.35,VWS V14.01,2013-05-27 00:16:00,
2013-05-26 17:18:00,58.1,48.8,29.85,NE,47,0.0,0.0,71,0.00,,,0.35,VWS V14.01,2013-05-27 00:18:00,
2013-05-26 17:19:00,57.9,48.6,29.85,NNE,21,2.7,3.1,71,0.00,,,0.35,VWS V14.01,2013-05-27 00:19:00,
2013-05-26 17:22:00,57.9,48.2,29.85,NNE,22,0.0,0.0,70,0.00,,,0.35,VWS V14.01,2013-05-27 00:22:00,
2013-05-26 17:23:00,57.9,48.2,29.85,North,357,0.0,0.0,70,0.00,,,0.35,VWS V14.01,2013-05-27 00:23:00,
2013-05-26 17:24:00,58.1,48.4,29.85,North,357,0.0,0.0,70,0.00,,,0.35,VWS V14.01,2013-05-27 00:24:00,
2013-05-26 17:25:00,58.1,48.4,29.85,North,357,0.0,0.0,70,0.00,,,0.35,VWS V14.01,2013-05-27 00:25:00,
2013-05-26 17:28:00,58.1,48.4,29.85,North,2,0.0,0.0,70,0.00,,,0.35,VWS V14.01,2013-05-27 00:28:00,
2013-05-26 17:29:00,58.1,48.4,29.85,North,8,0.0,0.0,70,0.00,,,0.35,VWS V14.01,2013-05-27 00:29:00,
2013-05-26 17:30:00,58.1,48.4,29.85,North,8,0.0,0.0,70,0.00,,,0.35,VWS V14.01,2013-05-27 00:30:00,
2013-05-26 17:32:00,58.3,48.5,29.85,North,5,0.0,0.0,70,0.00,,,0.35,VWS V14.01,2013-05-27 00:32:00,
2013-05-26 17:35:00,58.5,48.7,29.85,North,3,0.0,0.0,70,0.00,,,0.35,VWS V14.01,2013-05-27 00:35:00,
2013-05-26 17:38:00,58.6,48.9,29.85,West,269,0.0,0.0,70,0.00,,,0.35,VWS V14.01,2013-05-27 00:38:00,
2013-05-26 17:39:00,58.8,49.1,29.85,North,11,2.2,2.2,70,0.00,,,0.35,VWS V14.01,2013-05-27 00:39:00,
2013-05-26 17:41:00,58.8,49.5,29.85,North,8,0.0,0.0,71,0.00,,,0.35,VWS V14.01,2013-05-27 00:41:00,
2013-05-26 17:47:00,58.8,49.5,29.85,ENE,60,0.0,0.0,71,0.00,,,0.35,VWS V14.01,2013-05-27 00:47:00,
2013-05-26 17:48:00,59.0,49.6,29.85,ENE,60,0.0,0.0,71,0.00,,,0.35,VWS V14.01,2013-05-27 00:48:00,
2013-05-26 17:49:00,59.2,49.8,29.85,ENE,60,0.0,0.0,71,0.00,,,0.35,VWS V14.01,2013-05-27 00:49:00,
2013-05-26 17:51:00,59.2,49.8,29.85,ENE,60,0.0,0.0,71,0.00,,,0.35,VWS V14.01,2013-05-27 00:51:00,
2013-05-26 17:52:00,59.4,50.3,29.85,ENE,60,0.0,0.0,72,0.00,,,0.35,VWS V14.01,2013-05-27 00:52:00,
2013-05-26 17:53:00,59.5,50.9,29.85,ENE,60,0.0,0.0,73,0.00,,,0.35,VWS V14.01,2013-05-27 00:53:00,
2013-05-26 17:57:00,59.7,50.7,29.85,NNE,17,3.1,3.1,72,0.00,,,0.35,VWS V14.01,2013-05-27 00:57:00,
2013-05-26 17:58:00,59.2,49.8,29.85,NE,38,0.0,3.1,71,0.00,,,0.35,VWS V14.01,2013-05-27 00:58:00,
2013-05-26 18:01:00,59.4,50.0,29.85,NE,38,0.0,0.0,71,0.00,,,0.35,VWS V14.01,2013-05-27 01:01:00,
2013-05-26 18:02:00,59.4,50.0,29.85,NE,38,0.0,0.0,71,0.00,,,0.35,VWS V14.01,2013-05-27 01:02:00,
2013-05-26 18:03:00,59.0,49.6,29.85,NNE,26,3.6,3.6,71,0.00,,,0.35,VWS V14.01,2013-05-27 01:03:00,
2013-05-26 18:06:00,59.0,49.2,29.85,NNE,21,0.0,0.0,70,0.00,,,0.35,VWS V14.01,2013-05-27 01:06:00,
2013-05-26 18:09:00,59.2,49.8,29.85,NW,308,0.0,0.0,71,0.00,,,0.35,VWS V14.01,2013-05-27 01:09:00,
2013-05-26 18:11:00,58.8,49.1,29.85,NE,35,0.0,0.0,70,0.00,,,0.35,VWS V14.01,2013-05-27 01:11:00,
2013-05-26 18:12:00,59.0,49.2,29.85,NE,35,0.0,0.0,70,0.00,,,0.35,VWS V14.01,2013-05-27 01:12:00,
2013-05-26 18:13:00,58.8,49.5,29.85,NE,44,0.0,2.7,71,0.00,,,0.35,VWS V14.01,2013-05-27 01:13:00,
2013-05-26 18:14:00,58.8,49.5,29.85,NNE,25,0.0,2.2,71,0.00,,,0.35,VWS V14.01,2013-05-27 01:14:00,
2013-05-26 18:17:00,59.2,49.8,29.85,NNE,25,0.0,0.0,71,0.00,,,0.35,VWS V14.01,2013-05-27 01:17:00,
2013-05-26 18:19:00,59.2,49.8,29.85,NNE,25,0.0,0.0,71,0.00,,,0.35,VWS V14.01,2013-05-27 01:19:00,
2013-05-26 18:20:00,59.0,49.6,29.85,North,357,0.0,0.0,71,0.00,,,0.35,VWS V14.01,2013-05-27 01:20:00,
2013-05-26 18:24:00,58.5,48.3,29.85,ENE,63,0.0,0.0,69,0.00,,,0.35,VWS V14.01,2013-05-27 01:24:00,
2013-05-26 18:26:00,58.8,48.7,29.83,ENE,63,0.0,0.0,69,0.00,,,0.35,VWS V14.01,2013-05-27 01:26:00,
2013-05-26 18:28:00,59.0,48.9,29.83,ENE,63,0.0,0.0,69,0.00,,,0.35,VWS V14.01,2013-05-27 01:28:00,
2013-05-26 18:30:00,59.0,49.2,29.83,ENE,63,0.0,0.0,70,0.00,,,0.35,VWS V14.01,2013-05-27 01:30:00,
2013-05-26 18:31:00,59.2,49.4,29.83,ENE,63,0.0,0.0,70,0.00,,,0.35,VWS V14.01,2013-05-27 01:31:00,
2013-05-26 18:32:00,59.4,49.6,29.83,ENE,63,0.0,0.0,70,0.00,,,0.35,VWS V14.01,2013-05-27 01:32:00,
2013-05-26 18:35:00,59.5,49.8,29.83,ENE,63,0.0,0.0,70,0.00,,,0.35,VWS V14.01,2013-05-27 01:35:00,
2013-05-26 18:36:00,59.4,49.6,29.83,ENE,63,0.0,0.0,70,0.00,,,0.35,VWS V14.01,2013-05-27 01:36:00,
2013-05-26 18:37:00,59.5,49.8,29.83,ENE,63,0.0,0.0,70,0.00,,,0.35,VWS V14.01,2013-05-27 01:37:00,
2013-05-26 18:39:00,59.5,49.8,29.83,NNE,24,4.0,4.0,70,0.00,,,0.35,VWS V14.01,2013-05-27 01:39:00,
2013-05-26 18:41:00,59.4,49.6,29.83,NNE,21,0.0,0.0,70,0.00,,,0.35,VWS V14.01,2013-05-27 01:41:00,
2013-05-26 18:43:00,59.4,49.6,29.83,NNE,21,0.0,0.0,70,0.00,,,0.35,VWS V14.01,2013-05-27 01:43:00,
2013-05-26 18:44:00,59.4,49.6,29.83,NNE,21,0.0,0.0,70,0.00,,,0.35,VWS V14.01,2013-05-27 01:44:00,
2013-05-26 18:45:00,59.2,49.0,29.83,NNE,21,0.0,0.0,69,0.00,,,0.35,VWS V14.01,2013-05-27 01:45:00,
2013-05-26 18:48:00,58.8,48.7,29.83,ENE,77,0.0,0.0,69,0.00,,,0.35,VWS V14.01,2013-05-27 01:48:00,
2013-05-26 18:49:00,58.8,48.7,29.83,ENE,77,0.0,0.0,69,0.00,,,0.35,VWS V14.01,2013-05-27 01:49:00,
2013-05-26 18:52:00,58.6,48.9,29.83,North,4,0.0,3.1,70,0.00,,,0.35,VWS V14.01,2013-05-27 01:52:00,
2013-05-26 18:53:00,58.5,48.7,29.83,North,4,0.0,0.0,70,0.00,,,0.35,VWS V14.01,2013-05-27 01:53:00,
2013-05-26 18:55:00,58.5,48.7,29.83,North,4,0.0,0.0,70,0.00,,,0.35,VWS V14.01,2013-05-27 01:55:00,
2013-05-26 18:58:00,58.5,48.7,29.83,NE,34,0.0,0.0,70,0.00,,,0.35,VWS V14.01,2013-05-27 01:58:00,
2013-05-26 18:59:00,58.3,48.5,29.83,NE,34,0.0,0.0,70,0.00,,,0.35,VWS V14.01,2013-05-27 01:59:00,
2013-05-26 19:03:00,58.5,49.1,29.83,NE,34,0.0,0.0,71,0.00,,,0.35,VWS V14.01,2013-05-27 02:03:00,
2013-05-26 19:07:00,58.3,48.9,29.83,NE,34,0.0,0.0,71,0.00,,,0.35,VWS V14.01,2013-05-27 02:07:00,
2013-05-26 19:09:00,58.5,49.5,29.83,NE,34,0.0,0.0,72,0.00,,,0.35,VWS V14.01,2013-05-27 02:09:00,
2013-05-26 19:10:00,58.3,49.3,29.83,NE,34,0.0,0.0,72,0.00,,,0.35,VWS V14.01,2013-05-27 02:10:00,
2013-05-26 19:11:00,58.3,49.3,29.83,NE,34,0.0,0.0,72,0.00,,,0.35,VWS V14.01,2013-05-27 02:11:00,
2013-05-26 19:16:00,58.1,49.1,29.83,North,3,0.0,2.2,72,0.00,,,0.35,VWS V14.01,2013-05-27 02:16:00,
2013-05-26 19:17:00,58.1,48.8,29.83,North,3,0.0,0.0,71,0.00,,,0.35,VWS V14.01,2013-05-27 02:17:00,
2013-05-26 19:20:00,57.9,48.6,29.83,NE,35,0.0,0.0,71,0.00,,,0.35,VWS V14.01,2013-05-27 02:20:00,
2013-05-26 19:22:00,57.9,48.6,29.83,NE,35,0.0,0.0,71,0.00,,,0.35,VWS V14.01,2013-05-27 02:22:00,
2013-05-26 19:23:00,57.9,49.0,29.83,NE,34,0.0,0.0,72,0.00,,,0.35,VWS V14.01,2013-05-27 02:23:00,
2013-05-26 19:24:00,57.9,49.0,29.83,NE,34,0.0,0.0,72,0.00,,,0.35,VWS V14.01,2013-05-27 02:24:00,
2013-05-26 19:28:00,58.1,49.1,29.83,NE,34,0.0,0.0,72,0.00,,,0.35,VWS V14.01,2013-05-27 02:28:00,
2013-05-26 19:29:00,58.1,49.1,29.83,NE,34,0.0,0.0,72,0.00,,,0.35,VWS V14.01,2013-05-27 02:29:00,
2013-05-26 19:31:00,58.1,49.1,29.83,NE,34,0.0,0.0,72,0.00,,,0.35,VWS V14.01,2013-05-27 02:31:00,
2013-05-26 19:32:00,58.1,49.1,29.83,NE,34,0.0,0.0,72,0.00,,,0.35,VWS V14.01,2013-05-27 02:32:00,
2013-05-26 19:35:00,57.9,49.0,29.83,NE,34,0.0,0.0,72,0.00,,,0.35,VWS V14.01,2013-05-27 02:35:00,
2013-05-26 19:36:00,57.9,49.0,29.83,NE,34,0.0,0.0,72,0.00,,,0.35,VWS V14.01,2013-05-27 02:36:00,
2013-05-26 19:37:00,57.9,49.0,29.83,NE,34,0.0,0.0,72,0.00,,,0.35,VWS V14.01,2013-05-27 02:37:00,
2013-05-26 19:39:00,57.9,49.0,29.83,NE,34,0.0,0.0,72,0.00,,,0.35,VWS V14.01,2013-05-27 02:39:00,
2013-05-26 19:40:00,57.9,49.0,29.83,NE,34,0.0,0.0,72,0.00,,,0.35,VWS V14.01,2013-05-27 02:40:00,
2013-05-26 19:41:00,57.9,49.0,29.83,NE,34,0.0,0.0,72,0.00,,,0.35,VWS V14.01,2013-05-27 02:41:00,
2013-05-26 19:45:00,57.9,49.0,29.83,NE,34,0.0,0.0,72,0.00,,,0.35,VWS V14.01,2013-05-27 02:45:00,
2013-05-26 19:47:00,57.9,49.0,29.83,NE,34,0.0,0.0,72,0.00,,,0.35,VWS V14.01,2013-05-27 02:47:00,
2013-05-26 19:48:00,57.9,49.0,29.83,NE,34,0.0,0.0,72,0.00,,,0.35,VWS V14.01,2013-05-27 02:48:00,
2013-05-26 19:52:00,57.9,49.0,29.83,NE,34,0.0,0.0,72,0.00,,,0.35,VWS V14.01,2013-05-27 02:52:00,
2013-05-26 19:54:00,57.7,48.8,29.83,NE,34,0.0,0.0,72,0.00,,,0.35,VWS V14.01,2013-05-27 02:54:00,
2013-05-26 19:55:00,57.7,48.8,29.83,NE,34,0.0,0.0,72,0.00,,,0.35,VWS V14.01,2013-05-27 02:55:00,
2013-05-26 19:56:00,57.7,49.2,29.83,NE,34,0.0,0.0,73,0.00,,,0.35,VWS V14.01,2013-05-27 02:56:00,
2013-05-26 19:58:00,57.7,49.2,29.83,NE,34,0.0,0.0,73,0.00,,,0.35,VWS V14.01,2013-05-27 02:58:00,
2013-05-26 20:00:00,57.6,49.0,29.83,NE,34,0.0,0.0,73,0.00,,,0.35,VWS V14.01,2013-05-27 03:00:00,
2013-05-26 20:01:00,57.6,49.0,29.83,NE,34,0.0,0.0,73,0.00,,,0.35,VWS V14.01,2013-05-27 03:01:00,
2013-05-26 20:05:00,57.6,49.3,29.83,NE,34,0.0,0.0,74,0.00,,,0.35,VWS V14.01,2013-05-27 03:05:00,
2013-05-26 20:06:00,57.6,49.3,29.83,NE,34,0.0,0.0,74,0.00,,,0.35,VWS V14.01,2013-05-27 03:06:00,
2013-05-26 20:08:00,57.2,49.0,29.83,NE,34,0.0,0.0,74,0.00,,,0.35,VWS V14.01,2013-05-27 03:08:00,
2013-05-26 20:12:00,57.2,49.4,29.83,NE,34,0.0,0.0,75,0.00,,,0.35,VWS V14.01,2013-05-27 03:12:00,
2013-05-26 20:13:00,57.2,49.4,29.83,NE,34,0.0,0.0,75,0.00,,,0.35,VWS V14.01,2013-05-27 03:13:00,
2013-05-26 20:14:00,57.2,49.4,29.83,NE,34,0.0,0.0,75,0.00,,,0.35,VWS V14.01,2013-05-27 03:14:00,
2013-05-26 20:15:00,57.2,49.4,29.83,NE,34,0.0,0.0,75,0.00,,,0.35,VWS V14.01,2013-05-27 03:15:00,
2013-05-26 20:17:00,57.0,49.5,29.83,NE,34,0.0,0.0,76,0.00,,,0.35,VWS V14.01,2013-05-27 03:17:00,
2013-05-26 20:19:00,57.0,49.5,29.83,NE,34,0.0,0.0,76,0.00,,,0.35,VWS V14.01,2013-05-27 03:19:00,
2013-05-26 20:21:00,56.7,48.8,29.83,NE,34,0.0,0.0,75,0.00,,,0.35,VWS V14.01,2013-05-27 03:21:00,
2013-05-26 20:22:00,56.5,48.7,29.83,NE,34,0.0,0.0,75,0.00,,,0.35,VWS V14.01,2013-05-27 03:22:00,
2013-05-26 20:26:00,56.1,48.3,29.83,NE,34,0.0,0.0,75,0.00,,,0.35,VWS V14.01,2013-05-27 03:26:00,
2013-05-26 20:27:00,56.1,48.3,29.83,NE,34,0.0,0.0,75,0.00,,,0.35,VWS V14.01,2013-05-27 03:27:00,
2013-05-26 20:28:00,56.1,48.3,29.83,NE,34,0.0,0.0,75,0.00,,,0.35,VWS V14.01,2013-05-27 03:28:00,
2013-05-26 20:32:00,56.3,48.5,29.83,NE,34,0.0,0.0,75,0.00,,,0.35,VWS V14.01,2013-05-27 03:32:00,
2013-05-26 20:33:00,56.3,48.5,29.83,NE,34,0.0,0.0,75,0.00,,,0.35,VWS V14.01,2013-05-27 03:33:00,
2013-05-26 20:34:00,56.3,48.8,29.83,NE,34,0.0,0.0,76,0.00,,,0.35,VWS V14.01,2013-05-27 03:34:00,
2013-05-26 20:35:00,56.3,48.8,29.83,NE,34,0.0,0.0,76,0.00,,,0.35,VWS V14.01,2013-05-27 03:35:00,
2013-05-26 20:37:00,56.3,48.8,29.83,NE,34,0.0,0.0,76,0.00,,,0.35,VWS V14.01,2013-05-27 03:37:00,
2013-05-26 20:38:00,56.3,48.8,29.83,NE,34,0.0,0.0,76,0.00,,,0.35,VWS V14.01,2013-05-27 03:38:00,
2013-05-26 20:42:00,56.1,48.7,29.83,NE,34,0.0,0.0,76,0.00,,,0.35,VWS V14.01,2013-05-27 03:42:00,
2013-05-26 20:43:00,56.1,48.7,29.83,NE,34,0.0,0.0,76,0.00,,,0.35,VWS V14.01,2013-05-27 03:43:00,
2013-05-26 20:44:00,56.1,48.7,29.83,NE,34,0.0,0.0,76,0.00,,,0.35,VWS V14.01,2013-05-27 03:44:00,
2013-05-26 20:46:00,56.1,48.3,29.83,NE,34,0.0,0.0,75,0.00,,,0.35,VWS V14.01,2013-05-27 03:46:00,
2013-05-26 20:47:00,56.1,48.7,29.83,NE,34,0.0,0.0,76,0.00,,,0.35,VWS V14.01,2013-05-27 03:47:00,
2013-05-26 20:51:00,55.9,48.5,29.83,NE,34,0.0,0.0,76,0.00,,,0.35,VWS V14.01,2013-05-27 03:51:00,
2013-05-26 20:52:00,55.9,48.5,29.83,NE,34,0.0,0.0,76,0.00,,,0.35,VWS V14.01,2013-05-27 03:52:00,
2013-05-26 20:53:00,55.9,48.5,29.83,NE,34,0.0,0.0,76,0.00,,,0.35,VWS V14.01,2013-05-27 03:53:00,
2013-05-26 20:54:00,55.9,48.5,29.83,NE,34,0.0,0.0,76,0.00,,,0.35,VWS V14.01,2013-05-27 03:54:00,
2013-05-26 20:59:00,55.9,48.5,29.83,NNE,33,0.0,0.0,76,0.00,,,0.35,VWS V14.01,2013-05-27 03:59:00,
2013-05-26 21:00:00,55.9,48.5,29.83,NNE,33,0.0,0.0,76,0.00,,,0.35,VWS V14.01,2013-05-27 04:00:00,
2013-05-26 21:01:00,55.9,48.8,29.83,NNE,33,0.0,0.0,77,0.00,,,0.35,VWS V14.01,2013-05-27 04:01:00,
2013-05-26 21:02:00,55.9,48.8,29.83,NNE,33,0.0,0.0,77,0.00,,,0.35,VWS V14.01,2013-05-27 04:02:00,
2013-05-26 21:04:00,55.9,48.8,29.83,NNE,33,0.0,0.0,77,0.00,,,0.35,VWS V14.01,2013-05-27 04:04:00,
2013-05-26 21:06:00,55.8,48.7,29.83,NNE,33,0.0,0.0,77,0.00,,,0.35,VWS V14.01,2013-05-27 04:06:00,
2013-05-26 21:09:00,55.8,48.7,29.83,NNE,33,0.0,0.0,77,0.00,,,0.35,VWS V14.01,2013-05-27 04:09:00,
2013-05-26 21:10:00,55.8,48.7,29.83,NNE,33,0.0,0.0,77,0.00,,,0.35,VWS V14.01,2013-05-27 04:10:00,
2013-05-26 21:12:00,55.8,48.7,29.83,NNE,33,0.0,0.0,77,0.00,,,0.35,VWS V14.01,2013-05-27 04:12:00,
2013-05-26 21:13:00,55.8,48.7,29.83,NNE,33,0.0,0.0,77,0.00,,,0.35,VWS V14.01,2013-05-27 04:13:00,
2013-05-26 21:15:00,55.8,48.7,29.83,NNE,31,0.0,0.0,77,0.00,,,0.35,VWS V14.01,2013-05-27 04:15:00,
2013-05-26 21:19:00,55.9,48.8,29.83,NNE,31,0.0,0.0,77,0.00,,,0.35,VWS V14.01,2013-05-27 04:19:00,
2013-05-26 21:20:00,55.9,48.8,29.83,NNE,31,0.0,0.0,77,0.00,,,0.35,VWS V14.01,2013-05-27 04:20:00,
2013-05-26 21:22:00,55.9,48.8,29.83,NNE,31,0.0,0.0,77,0.00,,,0.35,VWS V14.01,2013-05-27 04:22:00,
2013-05-26 21:23:00,55.9,48.8,29.83,NNE,31,0.0,0.0,77,0.00,,,0.35,VWS V14.01,2013-05-27 04:23:00,
2013-05-26 21:27:00,55.9,48.8,29.83,NNE,31,0.0,0.0,77,0.00,,,0.35,VWS V14.01,2013-05-27 04:27:00,
2013-05-26 21:28:00,55.8,48.7,29.83,NNE,31,0.0,0.0,77,0.00,,,0.35,VWS V14.01,2013-05-27 04:28:00,
2013-05-26 21:29:00,55.8,48.7,29.83,NNE,31,0.0,0.0,77,0.00,,,0.35,VWS V14.01,2013-05-27 04:29:00,
2013-05-26 21:30:00,55.8,48.7,29.83,NNE,31,0.0,0.0,77,0.00,,,0.35,VWS V14.01,2013-05-27 04:30:00,
2013-05-26 21:33:00,55.8,48.7,29.83,NNE,31,0.0,0.0,77,0.00,,,0.35,VWS V14.01,2013-05-27 04:33:00,
2013-05-26 21:35:00,55.8,48.7,29.83,NNE,31,0.0,0.0,77,0.00,,,0.35,VWS V14.01,2013-05-27 04:35:00,
2013-05-26 21:36:00,55.8,48.7,29.83,NNE,31,0.0,0.0,77,0.00,,,0.35,VWS V14.01,2013-05-27 04:36:00,
2013-05-26 21:38:00,55.8,48.7,29.83,NNE,31,0.0,0.0,77,0.00,,,0.35,VWS V14.01,2013-05-27 04:38:00,
2013-05-26 21:41:00,55.8,48.7,29.83,NNE,31,0.0,0.0,77,0.00,,,0.35,VWS V14.01,2013-05-27 04:41:00,
2013-05-26 21:43:00,55.8,48.7,29.83,NNE,31,0.0,0.0,77,0.00,,,0.35,VWS V14.01,2013-05-27 04:43:00,
2013-05-26 21:44:00,55.8,48.7,29.83,NNE,31,0.0,0.0,77,0.00,,,0.35,VWS V14.01,2013-05-27 04:44:00,
2013-05-26 21:45:00,55.8,48.7,29.83,NNE,31,0.0,0.0,77,0.00,,,0.35,VWS V14.01,2013-05-27 04:45:00,
2013-05-26 21:49:00,55.6,48.5,29.83,NNE,31,0.0,0.0,77,0.00,,,0.35,VWS V14.01,2013-05-27 04:49:00,
2013-05-26 21:50:00,55.6,48.2,29.83,NNE,31,0.0,0.0,76,0.00,,,0.35,VWS V14.01,2013-05-27 04:50:00,
2013-05-26 21:51:00,55.6,48.2,29.83,NNE,31,0.0,0.0,76,0.00,,,0.35,VWS V14.01,2013-05-27 04:51:00,
2013-05-26 21:52:00,55.6,48.2,29.83,NNE,31,0.0,0.0,76,0.00,,,0.35,VWS V14.01,2013-05-27 04:52:00,
2013-05-26 21:56:00,55.6,48.2,29.83,NNE,31,0.0,0.0,76,0.00,,,0.35,VWS V14.01,2013-05-27 04:56:00,
2013-05-26 21:58:00,55.6,48.2,29.83,NNE,31,0.0,0.0,76,0.00,,,0.35,VWS V14.01,2013-05-27 04:58:00,
2013-05-26 21:59:00,55.6,48.2,29.83,NNE,31,0.0,0.0,76,0.00,,,0.35,VWS V14.01,2013-05-27 04:59:00,
2013-05-26 22:00:00,55.6,48.2,29.83,NNE,31,0.0,0.0,76,0.00,,,0.35,VWS V14.01,2013-05-27 05:00:00,
2013-05-26 22:01:00,55.6,48.2,29.83,NNE,31,0.0,0.0,76,0.00,,,0.35,VWS V14.01,2013-05-27 05:01:00,
2013-05-26 22:07:00,55.6,48.2,29.83,NNE,31,0.0,0.0,76,0.00,,,0.35,VWS V14.01,2013-05-27 05:07:00,
2013-05-26 22:08:00,55.6,48.2,29.83,NNE,31,0.0,0.0,76,0.00,,,0.35,VWS V14.01,2013-05-27 05:08:00,
2013-05-26 22:09:00,55.6,48.2,29.83,NNE,31,0.0,0.0,76,0.00,,,0.35,VWS V14.01,2013-05-27 05:09:00,
2013-05-26 22:10:00,55.6,48.2,29.83,NNE,31,0.0,0.0,76,0.00,,,0.35,VWS V14.01,2013-05-27 05:10:00,
2013-05-26 22:13:00,55.4,48.0,29.83,NNE,31,0.0,0.0,76,0.00,,,0.35,VWS V14.01,2013-05-27 05:13:00,
2013-05-26 22:15:00,55.6,48.2,29.83,NNE,31,0.0,0.0,76,0.00,,,0.35,VWS V14.01,2013-05-27 05:15:00,
2013-05-26 22:17:00,55.6,48.2,29.83,NNE,31,0.0,0.0,76,0.00,,,0.35,VWS V14.01,2013-05-27 05:17:00,
2013-05-26 22:20:00,55.6,48.2,29.83,NNE,31,0.0,0.0,76,0.00,,,0.35,VWS V14.01,2013-05-27 05:20:00,
2013-05-26 22:21:00,55.4,48.0,29.83,NNE,31,0.0,0.0,76,0.00,,,0.35,VWS V14.01,2013-05-27 05:21:00,
2013-05-26 22:22:00,55.4,48.0,29.83,NNE,31,0.0,0.0,76,0.00,,,0.35,VWS V14.01,2013-05-27 05:22:00,
2013-05-26 22:23:00,55.4,48.0,29.83,NNE,31,0.0,0.0,76,0.00,,,0.35,VWS V14.01,2013-05-27 05:23:00,
2013-05-26 22:26:00,55.0,47.6,29.83,NNE,31,0.0,0.0,76,0.00,,,0.35,VWS V14.01,2013-05-27 05:26:00,
2013-05-26 22:27:00,55.0,47.6,29.83,North,353,0.0,0.0,76,0.00,,,0.35,VWS V14.01,2013-05-27 05:27:00,
2013-05-26 22:29:00,55.0,47.6,29.83,North,8,0.0,0.0,76,0.00,,,0.35,VWS V14.01,2013-05-27 05:29:00,
2013-05-26 22:31:00,54.9,47.5,29.83,North,8,0.0,0.0,76,0.00,,,0.35,VWS V14.01,2013-05-27 05:31:00,
2013-05-26 22:32:00,54.9,47.5,29.83,North,8,0.0,0.0,76,0.00,,,0.35,VWS V14.01,2013-05-27 05:32:00,
2013-05-26 22:33:00,54.9,47.5,29.83,North,8,0.0,0.0,76,0.00,,,0.35,VWS V14.01,2013-05-27 05:33:00,
2013-05-26 22:37:00,54.7,47.3,29.83,North,8,0.0,0.0,76,0.00,,,0.35,VWS V14.01,2013-05-27 05:37:00,
2013-05-26 22:38:00,54.5,47.1,29.83,North,8,0.0,0.0,76,0.00,,,0.35,VWS V14.01,2013-05-27 05:38:00,
2013-05-26 22:39:00,54.5,47.1,29.83,North,8,0.0,0.0,76,0.00,,,0.35,VWS V14.01,2013-05-27 05:39:00,
2013-05-26 22:44:00,54.3,47.3,29.83,North,8,0.0,0.0,77,0.00,,,0.35,VWS V14.01,2013-05-27 05:44:00,
2013-05-26 22:45:00,54.3,47.3,29.83,North,8,0.0,0.0,77,0.00,,,0.35,VWS V14.01,2013-05-27 05:45:00,
2013-05-26 22:48:00,54.1,47.1,29.83,North,8,0.0,0.0,77,0.00,,,0.35,VWS V14.01,2013-05-27 05:48:00,
2013-05-26 22:49:00,54.1,47.1,29.83,North,8,0.0,0.0,77,0.00,,,0.35,VWS V14.01,2013-05-27 05:49:00,
2013-05-26 22:51:00,54.0,46.9,29.83,North,8,0.0,0.0,77,0.00,,,0.35,VWS V14.01,2013-05-27 05:51:00,
2013-05-26 22:53:00,53.8,46.8,29.83,North,8,0.0,0.0,77,0.00,,,0.35,VWS V14.01,2013-05-27 05:53:00,
2013-05-26 22:55:00,53.8,46.8,29.83,North,8,0.0,0.0,77,0.00,,,0.35,VWS V14.01,2013-05-27 05:55:00,
2013-05-26 22:57:00,53.8,46.8,29.83,North,8,0.0,0.0,77,0.00,,,0.35,VWS V14.01,2013-05-27 05:57:00,
2013-05-26 22:58:00,53.6,46.6,29.83,North,8,0.0,0.0,77,0.00,,,0.35,VWS V14.01,2013-05-27 05:58:00,
2013-05-26 22:59:00,53.6,46.6,29.83,North,8,0.0,0.0,77,0.00,,,0.35,VWS V14.01,2013-05-27 05:59:00,
2013-05-26 23:00:00,53.6,46.6,29.83,North,8,0.0,0.0,77,0.00,,,0.35,VWS V14.01,2013-05-27 06:00:00,
2013-05-26 23:04:00,53.6,46.6,29.83,North,8,0.0,0.0,77,0.00,,,0.35,VWS V14.01,2013-05-27 06:04:00,
2013-05-26 23:06:00,53.4,46.4,29.83,North,8,0.0,0.0,77,0.00,,,0.35,VWS V14.01,2013-05-27 06:06:00,
2013-05-26 23:07:00,53.4,46.4,29.83,North,8,0.0,0.0,77,0.00,,,0.35,VWS V14.01,2013-05-27 06:07:00,
2013-05-26 23:08:00,53.4,46.4,29.83,North,8,0.0,0.0,77,0.00,,,0.35,VWS V14.01,2013-05-27 06:08:00,
2013-05-26 23:11:00,53.2,46.2,29.83,North,8,0.0,0.0,77,0.00,,,0.35,VWS V14.01,2013-05-27 06:11:00,
2013-05-26 23:12:00,53.1,46.0,29.83,North,8,0.0,0.0,77,0.00,,,0.35,VWS V14.01,2013-05-27 06:12:00,
2013-05-26 23:17:00,53.1,46.0,29.83,North,8,0.0,0.0,77,0.00,,,0.35,VWS V14.01,2013-05-27 06:17:00,
2013-05-26 23:19:00,53.1,46.0,29.83,North,8,0.0,0.0,77,0.00,,,0.35,VWS V14.01,2013-05-27 06:19:00,
2013-05-26 23:21:00,52.9,45.9,29.83,North,8,0.0,0.0,77,0.00,,,0.35,VWS V14.01,2013-05-27 06:21:00,
2013-05-26 23:24:00,52.9,45.9,29.83,North,8,0.0,0.0,77,0.00,,,0.35,VWS V14.01,2013-05-27 06:24:00,
2013-05-26 23:25:00,52.9,45.9,29.83,North,8,0.0,0.0,77,0.00,,,0.35,VWS V14.01,2013-05-27 06:25:00,
2013-05-26 23:26:00,52.9,45.9,29.83,North,8,0.0,0.0,77,0.00,,,0.35,VWS V14.01,2013-05-27 06:26:00,
2013-05-26 23:30:00,53.1,46.0,29.83,North,8,0.0,0.0,77,0.00,,,0.35,VWS V14.01,2013-05-27 06:30:00,
2013-05-26 23:31:00,53.1,46.0,29.83,North,8,0.0,0.0,77,0.00,,,0.35,VWS V14.01,2013-05-27 06:31:00,
2013-05-26 23:32:00,53.1,46.0,29.83,North,8,0.0,0.0,77,0.00,,,0.35,VWS V14.01,2013-05-27 06:32:00,
2013-05-26 23:34:00,53.1,46.0,29.83,North,8,0.0,0.0,77,0.00,,,0.35,VWS V14.01,2013-05-27 06:34:00,
2013-05-26 23:37:00,53.1,46.0,29.83,North,8,0.0,0.0,77,0.00,,,0.35,VWS V14.01,2013-05-27 06:37:00,
2013-05-26 23:39:00,52.9,45.9,29.83,North,8,0.0,0.0,77,0.00,,,0.35,VWS V14.01,2013-05-27 06:39:00,
2013-05-26 23:42:00,52.7,45.7,29.80,North,8,0.0,0.0,77,0.00,,,0.35,VWS V14.01,2013-05-27 06:42:00,
2013-05-26 23:43:00,52.7,45.7,29.80,North,8,0.0,0.0,77,0.00,,,0.35,VWS V14.01,2013-05-27 06:43:00,
2013-05-26 23:44:00,52.7,45.7,29.80,North,8,0.0,0.0,77,0.00,,,0.35,VWS V14.01,2013-05-27 06:44:00,
2013-05-26 23:46:00,52.7,45.7,29.80,North,8,0.0,0.0,77,0.00,,,0.35,VWS V14.01,2013-05-27 06:46:00,
2013-05-26 23:48:00,52.5,45.5,29.80,North,8,0.0,0.0,77,0.00,,,0.35,VWS V14.01,2013-05-27 06:48:00,
2013-05-26 23:49:00,52.5,45.5,29.80,North,8,0.0,0.0,77,0.00,,,0.35,VWS V14.01,2013-05-27 06:49:00,
2013-05-26 23:51:00,52.3,45.3,29.80,North,8,0.0,0.0,77,0.00,,,0.35,VWS V14.01,2013-05-27 06:51:00,
2013-05-26 23:52:00,52.5,45.5,29.80,North,8,0.0,0.0,77,0.00,,,0.35,VWS V14.01,2013-05-27 06:52:00,
2013-05-26 23:55:00,52.5,45.5,29.80,North,8,0.0,0.0,77,0.00,,,0.35,VWS V14.01,2013-05-27 06:55:00,
2013-05-26 23:56:00,52.5,45.5,29.80,North,8,0.0,0.0,77,0.00,,,0.35,VWS V14.01,2013-05-27 06:56:00,
2013-05-26 23:58:00,52.7,45.7,29.80,North,8,0.0,0.0,77,0.00,,,0.35,VWS V14.01,2013-05-27 06:58:00,